M I D A S
Marine Information and Data Acquisition System
Tripno 1933 of the Zeeleeuw from 2010-08-06 05:00:25 to 2010-08-06 16:27:48
Back to CruiseResearch ActivitiesStationsMapUnderway DataData graphs

EquipmentUnitsComment
TimeDGPSUTC
LatitudeDGPSDM.mWGS84
LongitudeDGPSDM.mWGS84
TemperatureSBE03/SBE38deg celciusITS90
ConductivitySBE21S/mITS90
SalinitySBE21 Practical Salinity Units
ChlorophylAChelsea fluorimeterg/lCalibrated in Aceton
Missing or incorrect values are displayed as -999
Sea surface data collected by the RV Zeeleeuw from 2010-08-06 05:01:29 to 2010-08-06 16:32:53
                                                                                    Next 1000 lines
Time Latitude Longitude Temperature Conductivity Salinity ChlorophylA
2010-08-06 05:01:39 51°13.661 2°55.956 22.7993 0.067867 0.355276 -0.965744
2010-08-06 05:01:44 51°13.662 2°55.953 22.879 0.067867 0.355276 -0.965744
2010-08-06 05:01:49 51°13.663 2°55.949 22.8905 0.067867 0.355281 -0.965744
2010-08-06 05:01:54 51°13.665 2°55.943 22.8864 0.067867 0.355292 -0.93092
2010-08-06 05:02:00 51°13.668 2°55.936 22.8845 0.067867 0.355286 -0.965744
2010-08-06 05:02:04 51°13.669 2°55.931 22.8607 0.067867 0.355297 -0.965744
2010-08-06 05:02:09 51°13.671 2°55.923 22.8681 0.067867 0.355292 -0.965744
2010-08-06 05:02:14 51°13.674 2°55.915 22.8799 0.067867 0.355292 -0.965744
2010-08-06 05:02:19 51°13.676 2°55.907 22.8873 0.067867 0.355297 -0.965744
2010-08-06 05:02:24 51°13.678 2°55.898 22.8962 0.067867 0.355297 -0.965744
2010-08-06 05:02:29 51°13.681 2°55.888 22.8881 0.067867 0.355297 -0.965744
2010-08-06 05:02:34 51°13.683 2°55.879 22.9019 0.067867 0.355303 -0.93092
2010-08-06 05:02:39 51°13.685 2°55.87 22.9048 0.067867 0.355308 -0.965744
2010-08-06 05:02:44 51°13.687 2°55.862 22.9031 0.067867 0.355308 -0.965744
2010-08-06 05:02:49 51°13.689 2°55.853 22.8964 0.067867 0.355308 -0.965744
2010-08-06 05:02:54 51°13.69 2°55.845 22.8894 0.067867 0.355313 -0.965744
2010-08-06 05:02:59 51°13.692 2°55.836 22.8918 0.067867 0.355319 -0.93092
2010-08-06 05:03:04 51°13.693 2°55.828 22.8887 0.067867 0.355319 -0.965744
2010-08-06 05:03:09 51°13.695 2°55.82 22.8947 0.067867 0.355324 -0.965744
2010-08-06 05:03:15 51°13.696 2°55.811 22.894 0.067867 0.355324 -0.965744
2010-08-06 05:03:19 51°13.697 2°55.805 22.8872 0.067867 0.35533 -0.93092
2010-08-06 05:03:24 51°13.698 2°55.797 22.8868 0.067867 0.355335 -0.965744
2010-08-06 05:03:29 51°13.699 2°55.79 22.8884 0.067867 0.355335 -0.965744
2010-08-06 05:03:34 51°13.7 2°55.783 22.8792 0.067867 0.355335 -1.000568
2010-08-06 05:03:39 51°13.701 2°55.776 22.8875 0.067867 0.35534 -0.965744
2010-08-06 05:03:44 51°13.702 2°55.77 22.8833 0.067867 0.35534 -0.965744
2010-08-06 05:03:48 51°13.702 2°55.765 22.8916 0.067867 0.35534 -0.965744
2010-08-06 05:03:53 51°13.703 2°55.759 22.9014 0.067867 0.35534 -0.93092
2010-08-06 05:03:58 51°13.703 2°55.754 22.9019 0.067867 0.355346 -0.965744
2010-08-06 05:04:03 51°13.704 2°55.751 22.9026 0.067867 0.355351 -1.000568
2010-08-06 05:04:08 51°13.704 2°55.749 22.912 0.067867 0.355346 -0.965744
2010-08-06 05:04:12 51°13.704 2°55.749 22.9204 0.067867 0.355346 -0.965744
2010-08-06 05:04:18 51°13.705 2°55.749 22.926 0.067867 0.355346 -1.000568
2010-08-06 05:04:23 51°13.707 2°55.75 22.9011 0.067867 0.355346 -0.965744
2010-08-06 05:04:27 51°13.707 2°55.751 22.8885 0.067867 0.355346 -0.965744
2010-08-06 05:04:32 51°13.709 2°55.752 22.8526 0.067867 0.355367 -0.965744
2010-08-06 05:04:37 51°13.709 2°55.752 22.8545 0.067867 0.355378 -0.965744
2010-08-06 05:04:42 51°13.709 2°55.751 22.8232 0.067867 0.355378 -0.965744
2010-08-06 05:04:47 51°13.709 2°55.75 22.8744 0.067867 0.355389 -0.965744
2010-08-06 05:04:52 51°13.707 2°55.748 22.8656 0.067867 0.3554 -0.93092
2010-08-06 05:04:56 51°13.706 2°55.746 22.8706 0.067867 0.355405 -0.965744
2010-08-06 05:05:01 51°13.704 2°55.744 22.8766 0.067867 0.355405 -0.965744
2010-08-06 05:05:07 51°13.701 2°55.741 22.8844 0.067867 0.3554 -0.965744
2010-08-06 05:05:12 51°13.698 2°55.739 22.8866 0.067867 0.3554 -0.965744
2010-08-06 05:05:18 51°13.695 2°55.736 22.8909 0.067867 0.355389 -0.93092
2010-08-06 05:05:23 51°13.694 2°55.735 22.89 0.067867 0.355384 -0.965744
2010-08-06 05:05:29 51°13.692 2°55.734 22.9012 0.067867 0.355378 -0.965744
2010-08-06 05:05:34 51°13.692 2°55.733 22.9019 0.067867 0.355373 -0.93092
2010-08-06 05:05:39 51°13.693 2°55.733 22.9096 0.067867 0.355373 -0.93092
2010-08-06 05:05:44 51°13.694 2°55.732 22.9089 0.067867 0.355373 -0.93092
2010-08-06 05:05:49 51°13.696 2°55.732 22.9142 0.067867 0.355373 -0.965744
2010-08-06 05:05:54 51°13.698 2°55.73 22.916 0.067867 0.355384 -0.965744
2010-08-06 05:05:59 51°13.701 2°55.728 22.9176 0.067867 0.355394 -0.965744
2010-08-06 05:06:04 51°13.705 2°55.726 22.9152 0.067867 0.355405 -0.965744
2010-08-06 05:06:09 51°13.709 2°55.723 22.9078 0.067867 0.355411 -0.965744
2010-08-06 05:06:14 51°13.714 2°55.719 22.9057 0.067867 0.355411 -0.965744
2010-08-06 05:06:19 51°13.719 2°55.715 22.8953 0.067867 0.355394 -0.93092
2010-08-06 05:06:24 51°13.725 2°55.71 22.8935 0.067867 0.355373 -0.93092
2010-08-06 05:06:28 51°13.729 2°55.706 22.8922 0.067867 0.355362 -0.93092
2010-08-06 05:06:33 51°13.736 2°55.701 22.8902 0.067867 0.355357 -0.965744
2010-08-06 05:06:38 51°13.743 2°55.695 22.8828 0.067867 0.355378 -1.000568
2010-08-06 05:06:43 51°13.75 2°55.689 22.8677 0.067867 0.355378 -1.000568
2010-08-06 05:06:48 51°13.758 2°55.683 22.8494 0.067867 0.3554 -0.93092
2010-08-06 05:06:52 51°13.764 2°55.678 22.8451 0.067867 0.355421 -0.965744
2010-08-06 05:06:57 51°13.773 2°55.672 22.8508 0.067867 0.355432 -0.965744
2010-08-06 05:07:02 51°13.781 2°55.665 22.8514 0.067867 0.355438 -0.965744
2010-08-06 05:07:08 51°13.792 2°55.657 22.851 0.067867 0.355438 -0.965744
2010-08-06 05:07:12 51°13.8 2°55.652 22.8543 0.067867 0.355438 -0.965744
2010-08-06 05:07:17 51°13.809 2°55.645 22.8505 0.067867 0.355427 -0.93092
2010-08-06 05:07:22 51°13.819 2°55.639 22.8455 0.067867 0.355421 -0.965744
2010-08-06 05:07:27 51°13.829 2°55.632 22.8565 0.067867 0.355432 -0.93092
2010-08-06 05:07:32 51°13.839 2°55.625 22.8593 0.067867 0.355443 -0.965744
2010-08-06 05:07:36 51°13.847 2°55.619 22.8774 0.067867 0.355454 -0.93092
2010-08-06 05:07:41 51°13.858 2°55.611 22.8694 0.067867 0.355454 -0.93092
2010-08-06 05:07:46 51°13.869 2°55.603 22.8647 0.067867 0.355475 -0.965744
2010-08-06 05:07:51 51°13.88 2°55.595 22.8557 0.067867 0.355475 -0.965744
2010-08-06 05:07:56 51°13.891 2°55.587 22.863 0.067867 0.355481 -0.965744
2010-08-06 05:08:00 51°13.9 2°55.581 22.8372 0.067867 0.355481 -0.93092
2010-08-06 05:08:06 51°13.913 2°55.57 22.8613 0.067867 0.355475 -0.965744
2010-08-06 05:08:11 51°13.925 2°55.562 22.8647 0.067867 0.355475 -0.965744
2010-08-06 05:08:16 51°13.937 2°55.553 22.8647 0.067867 0.35547 -0.93092
2010-08-06 05:08:20 51°13.946 2°55.546 22.8492 0.067867 0.35547 -0.93092
2010-08-06 05:08:26 51°13.961 2°55.535 22.8625 0.067867 0.35547 -0.965744
2010-08-06 05:08:31 51°13.973 2°55.527 22.864 0.067867 0.35547 -0.965744
2010-08-06 05:08:36 51°13.985 2°55.517 22.8494 0.067867 0.355486 -0.93092
2010-08-06 05:08:40 51°13.995 2°55.51 22.8748 0.067867 0.355486 -0.93092
2010-08-06 05:08:46 51°14.01 2°55.499 22.7393 0.067867 0.355481 -0.965744
2010-08-06 05:08:51 51°14.022 2°55.49 21.8017 0.067867 0.355492 -0.965744
2010-08-06 05:08:56 51°14.035 2°55.48 21.5225 0.067763 0.355103 -0.93092
2010-08-06 05:09:01 51°14.047 2°55.471 21.0313 0.133228 0.718381 -0.721976
2010-08-06 05:09:06 51°14.06 2°55.461 20.8894 0.190192 1.043407 -0.408559
2010-08-06 05:09:11 51°14.072 2°55.452 20.7742 0.190192 1.043407 -0.408559
2010-08-06 05:09:16 51°14.085 2°55.443 20.6896 0.195713 1.068086 -0.721976
2010-08-06 05:09:21 51°14.098 2°55.433 20.618 0.251147 1.376261 -0.513031
2010-08-06 05:09:26 51°14.11 2°55.423 20.5818 0.74607 4.364279 0.044153
2010-08-06 05:09:31 51°14.123 2°55.413 20.5598 0.627936 3.639488 0.287922
2010-08-06 05:09:36 51°14.135 2°55.403 20.5295 1.225941 7.500996 0.427218
2010-08-06 05:09:41 51°14.148 2°55.393 20.5103 1.225941 7.500996 0.427218
2010-08-06 05:09:46 51°14.16 2°55.383 20.4792 2.201411 14.275727 0.427218
2010-08-06 05:09:51 51°14.172 2°55.373 20.4823 3.597099 24.651461 0.462042
2010-08-06 05:09:56 51°14.185 2°55.362 20.4709 3.769935 26.07169 0.462042
2010-08-06 05:10:00 51°14.195 2°55.354 20.4659 3.893022 27.109544 0.462042
2010-08-06 05:10:06 51°14.21 2°55.341 20.4192 3.937748 27.525584 0.462042
2010-08-06 05:10:11 51°14.223 2°55.33 20.4269 3.937748 27.525584 0.462042
2010-08-06 05:10:16 51°14.235 2°55.319 20.4097 3.96507 27.778249 0.462042
2010-08-06 05:10:20 51°14.245 2°55.31 20.4187 3.982582 27.951655 0.496866
2010-08-06 05:10:26 51°14.26 2°55.296 20.3792 4.003048 28.146891 0.601338
2010-08-06 05:10:31 51°14.272 2°55.284 20.3638 4.016658 28.271411 0.670986
2010-08-06 05:10:36 51°14.285 2°55.273 20.3402 4.023093 28.336671 0.740634
2010-08-06 05:10:41 51°14.297 2°55.261 20.3218 4.023093 28.336671 0.740634
2010-08-06 05:10:46 51°14.31 2°55.249 20.2998 4.027208 28.38661 0.810283
2010-08-06 05:10:51 51°14.322 2°55.237 20.3014 4.030795 28.42921 0.984403
2010-08-06 05:10:56 51°14.335 2°55.225 20.2736 4.031428 28.44586 1.088875
2010-08-06 05:11:01 51°14.347 2°55.212 20.2665 4.030795 28.448839 1.262995
2010-08-06 05:11:05 51°14.357 2°55.203 20.2372 4.027631 28.440821 1.367467
2010-08-06 05:11:11 51°14.372 2°55.188 20.2256 4.027631 28.440821 1.367467
2010-08-06 05:11:16 51°14.385 2°55.174 20.1927 4.026682 28.445999 1.47194
2010-08-06 05:11:21 51°14.397 2°55.161 20.1957 4.03048 28.492739 1.541588
2010-08-06 05:11:26 51°14.41 2°55.148 20.2075 4.034594 28.541092 1.576412
2010-08-06 05:11:31 51°14.423 2°55.134 20.1834 4.046516 28.647706 1.576412
2010-08-06 05:11:36 51°14.436 2°55.121 20.1926 4.060653 28.768611 1.680884
2010-08-06 05:11:41 51°14.449 2°55.108 20.1867 4.060653 28.768611 1.680884
2010-08-06 05:11:46 51°14.462 2°55.095 20.1844 4.068566 28.84387 1.680884
2010-08-06 05:11:51 51°14.476 2°55.083 20.1689 4.083548 28.983194 1.715708
2010-08-06 05:11:56 51°14.489 2°55.069 20.1729 4.095787 29.092911 1.715708
2010-08-06 05:12:00 51°14.5 2°55.058 20.1691 4.103383 29.163614 1.715708
2010-08-06 05:12:06 51°14.516 2°55.041 20.1729 4.111613 29.239402 1.680884
2010-08-06 05:12:11 51°14.53 2°55.025 20.1652 4.111613 29.239402 1.680884
2010-08-06 05:12:16 51°14.543 2°55.009 20.1774 4.113829 29.261311 1.64606
2010-08-06 05:12:20 51°14.555 2°54.997 20.1696 4.112352 29.254454 1.576412
2010-08-06 05:12:26 51°14.571 2°54.977 20.1632 4.110875 29.245658 1.541588
2010-08-06 05:12:31 51°14.586 2°54.961 20.1679 4.109292 29.236509 1.437116
2010-08-06 05:12:36 51°14.601 2°54.945 20.1302 4.110347 29.247291 1.402292
2010-08-06 05:12:40 51°14.612 2°54.932 20.104 4.110347 29.247291 1.402292
2010-08-06 05:12:46 51°14.63 2°54.913 20.0857 4.105705 29.214379 1.332643
2010-08-06 05:12:51 51°14.644 2°54.896 20.0634 4.103806 29.201749 1.332643
2010-08-06 05:12:56 51°14.659 2°54.879 20.0546 4.101168 29.181816 1.262995
2010-08-06 05:13:00 51°14.671 2°54.865 20.048 4.099375 29.169538 1.332643
2010-08-06 05:13:06 51°14.689 2°54.844 20.0445 4.099269 29.169669 1.402292
2010-08-06 05:13:11 51°14.704 2°54.827 20.031 4.099269 29.169669 1.402292
2010-08-06 05:13:16 51°14.719 2°54.81 20.0406 4.100852 29.191886 1.506764
2010-08-06 05:13:20 51°14.731 2°54.796 20.0463 4.106655 29.252443 1.64606
2010-08-06 05:13:26 51°14.749 2°54.776 20.0325 4.123326 29.398876 1.715708
2010-08-06 05:13:31 51°14.764 2°54.759 20.0425 4.150442 29.630085 1.785356
2010-08-06 05:13:36 51°14.779 2°54.741 20.0282 4.162471 29.735668 1.785356
2010-08-06 05:13:41 51°14.794 2°54.724 20.03 4.162471 29.735668 1.785356
2010-08-06 05:13:46 51°14.809 2°54.706 20.0355 4.184735 29.919445 1.82018
2010-08-06 05:13:51 51°14.824 2°54.688 20.0285 4.205311 30.092993 1.889828
2010-08-06 05:13:56 51°14.839 2°54.671 20.0096 4.229053 30.285013 1.924652
2010-08-06 05:14:00 51°14.851 2°54.657 20.0315 4.246675 30.430348 1.889828
2010-08-06 05:14:06 51°14.869 2°54.635 20.0074 4.258916 30.531763 1.855004
2010-08-06 05:14:11 51°14.884 2°54.618 20.0044 4.258916 30.531763 1.855004
2010-08-06 05:14:16 51°14.899 2°54.6 20.0137 4.264614 30.579376 1.889828
2010-08-06 05:14:20 51°14.911 2°54.586 20.0128 4.274745 30.664514 1.855004
2010-08-06 05:14:26 51°14.928 2°54.565 20.0027 4.280549 30.713018 1.82018
2010-08-06 05:14:31 51°14.943 2°54.547 19.9993 4.283081 30.735343 1.82018
2010-08-06 05:14:36 51°14.958 2°54.53 20.0005 4.28688 30.767815 1.82018
2010-08-06 05:14:40 51°14.97 2°54.516 20.005 4.28688 30.767815 1.82018
2010-08-06 05:14:46 51°14.988 2°54.495 19.9934 4.288991 30.787796 1.82018
2010-08-06 05:14:51 51°15.003 2°54.478 19.987 4.293529 30.832368 1.750532
2010-08-06 05:14:56 51°15.017 2°54.461 20.0018 4.293951 30.833695 1.750532
2010-08-06 05:15:00 51°15.029 2°54.446 19.9848 4.294478 30.838951 1.715708
2010-08-06 05:15:06 51°15.047 2°54.425 19.9797 4.29469 30.843213 1.715708
2010-08-06 05:15:11 51°15.061 2°54.407 19.9864 4.29469 30.843213 1.715708
2010-08-06 05:15:16 51°15.076 2°54.389 19.9711 4.300388 30.892495 1.750532
2010-08-06 05:15:20 51°15.087 2°54.375 19.9701 4.300916 30.898271 1.715708
2010-08-06 05:15:26 51°15.105 2°54.353 19.9751 4.302499 30.911994 1.680884
2010-08-06 05:15:31 51°15.119 2°54.335 19.9655 4.303343 30.921857 1.785356
2010-08-06 05:15:36 51°15.134 2°54.317 19.9697 4.298805 30.886498 1.750532
2010-08-06 05:15:40 51°15.145 2°54.302 19.9735 4.298805 30.886498 1.750532
2010-08-06 05:15:46 51°15.163 2°54.28 19.9641 4.30577 30.946484 1.785356
2010-08-06 05:15:51 51°15.177 2°54.262 19.9694 4.306087 30.94954 1.785356
2010-08-06 05:15:56 51°15.192 2°54.244 19.9736 4.308303 30.973518 1.785356
2010-08-06 05:16:00 51°15.204 2°54.229 19.9739 4.309886 30.988289 1.785356
2010-08-06 05:16:06 51°15.222 2°54.207 19.9751 4.311258 31.002403 1.785356
2010-08-06 05:16:11 51°15.236 2°54.189 19.9761 4.311258 31.002403 1.785356
2010-08-06 05:16:16 51°15.251 2°54.171 19.9861 4.31358 31.023627 1.82018
2010-08-06 05:16:20 51°15.263 2°54.157 19.9749 4.307354 30.973648 1.889828
2010-08-06 05:16:26 51°15.28 2°54.135 19.9638 4.316746 31.049563 1.924652
2010-08-06 05:16:31 51°15.295 2°54.117 19.9592 4.316324 31.04721 1.924652
2010-08-06 05:16:36 51°15.31 2°54.099 19.9692 4.317062 31.053142 1.889828
2010-08-06 05:16:40 51°15.322 2°54.084 19.9543 4.317062 31.053142 1.889828
2010-08-06 05:16:46 51°15.339 2°54.063 19.9611 4.320439 31.07974 1.959476
2010-08-06 05:16:51 51°15.354 2°54.044 19.9563 4.322128 31.092781 1.924652
2010-08-06 05:16:56 51°15.369 2°54.026 19.9576 4.318223 31.058834 1.889828
2010-08-06 05:17:00 51°15.381 2°54.011 19.9521 4.323711 31.103937 1.924652
2010-08-06 05:17:06 51°15.398 2°53.99 19.958 4.326244 31.126356 1.889828
2010-08-06 05:17:11 51°15.413 2°53.971 19.9505 4.326244 31.126356 1.889828
2010-08-06 05:17:16 51°15.427 2°53.953 19.9463 4.325083 31.119629 1.924652
2010-08-06 05:17:20 51°15.439 2°53.939 19.951 4.322867 31.104425 1.924652
2010-08-06 05:17:26 51°15.456 2°53.917 19.9494 4.326033 31.131936 1.924652
2010-08-06 05:17:31 51°15.471 2°53.899 19.9463 4.32656 31.137215 1.855004
2010-08-06 05:17:36 51°15.486 2°53.881 19.9513 4.32751 31.145366 1.959476
2010-08-06 05:17:41 51°15.5 2°53.863 19.9494 4.32751 31.145366 1.959476
2010-08-06 05:17:46 51°15.515 2°53.845 19.9456 4.326244 31.13727 1.959476
2010-08-06 05:17:51 51°15.53 2°53.826 19.9451 4.326772 31.14255 1.9943
2010-08-06 05:17:56 51°15.544 2°53.808 19.9433 4.326349 31.141758 1.959476
2010-08-06 05:18:00 51°15.556 2°53.794 19.9389 4.328777 31.161785 1.959476
2010-08-06 05:18:06 51°15.574 2°53.772 19.9426 4.326561 31.146055 1.959476
2010-08-06 05:18:11 51°15.588 2°53.753 19.9388 4.326561 31.146055 1.959476
2010-08-06 05:18:16 51°15.603 2°53.735 19.9294 4.320756 31.098894 1.9943
2010-08-06 05:18:20 51°15.615 2°53.72 19.928 4.324978 31.133334 1.9943
2010-08-06 05:18:26 51°15.632 2°53.699 19.9295 4.327405 31.153881 1.9943
2010-08-06 05:18:31 51°15.647 2°53.68 19.9389 4.319279 31.0891 1.959476
2010-08-06 05:18:36 51°15.662 2°53.662 19.943 4.325927 31.143567 1.9943
2010-08-06 05:18:40 51°15.674 2°53.648 19.9435 4.325927 31.143567 1.9943
2010-08-06 05:18:45 51°15.688 2°53.629 19.9422 4.323078 31.123267 1.959476
2010-08-06 05:18:51 51°15.707 2°53.609 19.9468 4.320018 31.099711 1.959476
2010-08-06 05:18:56 51°15.722 2°53.591 19.9491 4.321812 31.115688 1.959476
2010-08-06 05:19:00 51°15.734 2°53.579 19.9488 4.325822 31.150524 2.029124
2010-08-06 05:19:05 51°15.75 2°53.562 19.9526 4.32044 31.106741 2.063949
2010-08-06 05:19:10 51°15.766 2°53.547 19.9402 4.32044 31.106741 2.063949
2010-08-06 05:19:15 51°15.781 2°53.532 19.9468 4.324556 31.138783 2.133597
2010-08-06 05:19:20 51°15.798 2°53.519 19.9348 4.325611 31.144665 2.168421
2010-08-06 05:19:25 51°15.814 2°53.505 19.9302 4.327616 31.161303 2.203245
2010-08-06 05:19:30 51°15.831 2°53.492 19.9362 4.329621 31.175339 2.168421
2010-08-06 05:19:35 51°15.847 2°53.48 19.9387 4.330571 31.180891 2.272893
2010-08-06 05:19:40 51°15.864 2°53.467 19.9426 4.330571 31.180891 2.272893
2010-08-06 05:19:45 51°15.88 2°53.455 19.9572 4.333842 31.206149 2.307717
2010-08-06 05:19:50 51°15.897 2°53.443 19.9575 4.337853 31.238913 2.377365
2010-08-06 05:19:55 51°15.914 2°53.431 19.9691 4.338697 31.246746 2.447013
2010-08-06 05:20:00 51°15.931 2°53.42 19.9771 4.338802 31.252815 2.447013
2010-08-06 05:20:05 51°15.947 2°53.408 19.9838 4.339436 31.258953 2.516661
2010-08-06 05:20:10 51°15.964 2°53.396 19.9938 4.339436 31.258953 2.516661
2010-08-06 05:20:15 51°15.981 2°53.384 20.0058 4.343763 31.293757 2.586309
2010-08-06 05:20:20 51°15.998 2°53.373 20.0008 4.345768 31.307796 2.725606
2010-08-06 05:20:25 51°16.014 2°53.361 20.0065 4.345134 31.299041 2.76043
2010-08-06 05:20:30 51°16.031 2°53.349 20.016 4.347245 31.309219 2.899726
2010-08-06 05:20:35 51°16.048 2°53.337 20.0139 4.353894 31.35903 2.969374
2010-08-06 05:20:40 51°16.064 2°53.325 20.0068 4.353894 31.35903 2.969374
2010-08-06 05:20:45 51°16.081 2°53.313 19.9994 4.357904 31.384999 3.10867
2010-08-06 05:20:50 51°16.098 2°53.301 19.9945 4.360225 31.396859 3.10867
2010-08-06 05:20:55 51°16.115 2°53.289 19.9948 4.362019 31.406569 3.178318
2010-08-06 05:21:00 51°16.131 2°53.276 19.9855 4.363602 31.413532 3.178318
2010-08-06 05:21:05 51°16.148 2°53.264 19.9957 4.363813 31.411036 3.178318
2010-08-06 05:21:10 51°16.165 2°53.252 20.0005 4.363813 31.411036 3.178318
2010-08-06 05:21:15 51°16.181 2°53.24 19.9896 4.36318 31.401755 3.247966
2010-08-06 05:21:20 51°16.198 2°53.228 19.9834 4.363074 31.399859 3.28279
2010-08-06 05:21:25 51°16.215 2°53.215 19.9941 4.362863 31.398162 3.213142
2010-08-06 05:21:29 51°16.228 2°53.206 19.9871 4.361491 31.390801 3.178318
2010-08-06 05:21:35 51°16.248 2°53.191 19.9919 4.359909 31.380171 3.213142
2010-08-06 05:21:40 51°16.265 2°53.179 19.9943 4.359909 31.380171 3.213142
2010-08-06 05:21:45 51°16.282 2°53.167 20.0066 4.356637 31.356491 3.178318
2010-08-06 05:21:50 51°16.299 2°53.155 20.0032 4.353999 31.336331 3.143494
2010-08-06 05:21:56 51°16.318 2°53.14 20.0062 4.352416 31.323608 3.143494
2010-08-06 05:22:00 51°16.332 2°53.13 20.0049 4.352943 31.329417 3.143494
2010-08-06 05:22:05 51°16.349 2°53.118 20.0019 4.351044 31.313628 3.039022
2010-08-06 05:22:10 51°16.365 2°53.106 20.0025 4.351044 31.313628 3.039022
2010-08-06 05:22:15 51°16.382 2°53.094 20.0035 4.350094 31.306517 3.073846
2010-08-06 05:22:20 51°16.399 2°53.081 20.0061 4.349672 31.301558 3.10867
2010-08-06 05:22:25 51°16.416 2°53.069 20.0051 4.348616 31.290989 3.10867
2010-08-06 05:22:30 51°16.432 2°53.057 20.0078 4.348405 31.287205 3.143494
2010-08-06 05:22:35 51°16.449 2°53.044 19.9983 4.347983 31.28277 3.143494
2010-08-06 05:22:40 51°16.466 2°53.032 19.9967 4.347983 31.28277 3.143494
2010-08-06 05:22:45 51°16.483 2°53.02 19.9964 4.347666 31.278139 3.073846
2010-08-06 05:22:50 51°16.5 2°53.007 19.9918 4.347561 31.277813 3.10867
2010-08-06 05:22:55 51°16.516 2°52.995 19.9869 4.346717 31.269988 3.039022
2010-08-06 05:23:00 51°16.533 2°52.983 19.9796 4.344606 31.254076 2.969374
2010-08-06 05:23:05 51°16.55 2°52.971 19.9847 4.343445 31.244231 2.969374
2010-08-06 05:23:10 51°16.567 2°52.959 19.9775 4.343445 31.244231 2.969374
2010-08-06 05:23:15 51°16.584 2°52.947 19.9749 4.34239 31.234712 2.93455
2010-08-06 05:23:20 51°16.6 2°52.935 19.9722 4.340596 31.222387 2.93455
2010-08-06 05:23:25 51°16.617 2°52.923 19.9684 4.339329 31.21534 2.899726
2010-08-06 05:23:30 51°16.634 2°52.912 19.9698 4.33838 31.209273 2.830078
2010-08-06 05:23:35 51°16.65 2°52.9 19.9644 4.337008 31.201898 2.830078
2010-08-06 05:23:40 51°16.667 2°52.888 19.9672 4.337008 31.201898 2.830078
2010-08-06 05:23:45 51°16.684 2°52.876 19.9675 4.336058 31.19635 2.830078
2010-08-06 05:23:50 51°16.7 2°52.864 19.9681 4.335319 31.192498 2.830078
2010-08-06 05:23:55 51°16.716 2°52.852 19.9753 4.335108 31.193926 2.76043
2010-08-06 05:24:00 51°16.733 2°52.84 19.9716 4.335636 31.199207 2.830078
2010-08-06 05:24:05 51°16.749 2°52.828 19.9745 4.338274 31.224053 2.830078
2010-08-06 05:24:10 51°16.766 2°52.816 19.9763 4.338274 31.224053 2.830078
2010-08-06 05:24:15 51°16.782 2°52.804 19.979 4.340702 31.245124 2.795254
2010-08-06 05:24:20 51°16.799 2°52.792 19.991 4.348406 31.308098 2.830078
2010-08-06 05:24:25 51°16.815 2°52.78 19.985 4.351572 31.334077 2.864902
2010-08-06 05:24:30 51°16.831 2°52.768 19.9882 4.356848 31.375463 2.899726
2010-08-06 05:24:35 51°16.847 2°52.756 19.9873 4.358748 31.390741 2.864902
2010-08-06 05:24:40 51°16.863 2°52.743 19.9875 4.358748 31.390741 2.864902
2010-08-06 05:24:45 51°16.879 2°52.731 19.9865 4.361597 31.414185 2.899726
2010-08-06 05:24:50 51°16.895 2°52.719 19.9866 4.364341 31.433633 2.899726
2010-08-06 05:24:55 51°16.911 2°52.707 19.9873 4.365397 31.441073 2.864902
2010-08-06 05:25:00 51°16.928 2°52.695 19.9925 4.365713 31.439421 2.864902
2010-08-06 05:25:05 51°16.945 2°52.686 19.9981 4.36698 31.446983 2.899726
2010-08-06 05:25:10 51°16.962 2°52.677 19.9904 4.36698 31.446983 2.899726
2010-08-06 05:25:15 51°16.979 2°52.668 19.9973 4.367402 31.449853 2.93455
2010-08-06 05:25:20 51°16.996 2°52.661 19.9995 4.367824 31.452724 2.899726
2010-08-06 05:25:24 51°17.01 2°52.655 20.0008 4.367613 31.451026 2.795254
2010-08-06 05:25:30 51°17.031 2°52.649 19.997 4.367296 31.44743 2.899726
2010-08-06 05:25:35 51°17.049 2°52.644 19.9987 4.366241 31.437893 2.830078
2010-08-06 05:25:40 51°17.067 2°52.641 19.9949 4.366241 31.437893 2.830078
2010-08-06 05:25:45 51°17.084 2°52.638 19.9951 4.365185 31.428358 2.795254
2010-08-06 05:25:50 51°17.102 2°52.636 19.9984 4.364024 31.41745 2.76043
2010-08-06 05:25:55 51°17.119 2°52.634 20.0067 4.362969 31.407393 2.725606
2010-08-06 05:26:00 51°17.137 2°52.633 20.0034 4.360964 31.389178 2.725606
2010-08-06 05:26:05 51°17.155 2°52.632 19.9987 4.360647 31.385062 2.76043
2010-08-06 05:26:10 51°17.172 2°52.631 19.991 4.360647 31.385062 2.76043
2010-08-06 05:26:15 51°17.19 2°52.63 19.9903 4.359381 31.374359 2.725606
2010-08-06 05:26:20 51°17.208 2°52.63 19.9888 4.358537 31.369143 2.725606
2010-08-06 05:26:25 51°17.225 2°52.629 19.9769 4.358431 31.369342 2.725606
2010-08-06 05:26:30 51°17.243 2°52.629 19.9849 4.357692 31.362357 2.725606
2010-08-06 05:26:35 51°17.261 2°52.628 19.9714 4.356848 31.355049 2.830078
2010-08-06 05:26:40 51°17.278 2°52.628 19.9723 4.356848 31.355049 2.830078
2010-08-06 05:26:45 51°17.296 2°52.627 19.976 4.35632 31.350808 2.795254
2010-08-06 05:26:50 51°17.314 2°52.626 19.973 4.356109 31.350157 2.830078
2010-08-06 05:26:55 51°17.332 2°52.625 19.9637 4.355265 31.345464 2.830078
2010-08-06 05:27:00 51°17.349 2°52.624 19.9598 4.354737 31.343314 2.864902
2010-08-06 05:27:05 51°17.367 2°52.623 19.9597 4.353577 31.336598 2.76043
2010-08-06 05:27:10 51°17.385 2°52.622 19.9607 4.353577 31.336598 2.76043
2010-08-06 05:27:15 51°17.403 2°52.62 19.9594 4.352838 31.333798 2.725606
2010-08-06 05:27:20 51°17.421 2°52.619 19.9531 4.351888 31.328777 2.76043
2010-08-06 05:27:25 51°17.439 2°52.617 19.9579 4.349883 31.315794 2.725606
2010-08-06 05:27:30 51°17.457 2°52.617 19.9483 4.350094 31.318014 2.76043
2010-08-06 05:27:35 51°17.475 2°52.615 19.9511 4.350727 31.326242 2.690782
2010-08-06 05:27:40 51°17.493 2°52.614 19.944 4.350727 31.326242 2.690782
2010-08-06 05:27:45 51°17.511 2°52.613 19.9429 4.349567 31.320569 2.655957
2010-08-06 05:27:50 51°17.528 2°52.611 19.9405 4.349672 31.322463 2.621133
2010-08-06 05:27:55 51°17.546 2°52.61 19.9457 4.349356 31.321486 2.551485
2010-08-06 05:28:00 51°17.564 2°52.608 19.9394 4.349039 31.321032 2.516661
2010-08-06 05:28:05 51°17.582 2°52.607 19.9328 4.348511 31.317312 2.481837
2010-08-06 05:28:10 51°17.6 2°52.605 19.9297 4.348511 31.317312 2.481837
2010-08-06 05:28:15 51°17.618 2°52.604 19.9254 4.348511 31.319927 2.481837
2010-08-06 05:28:20 51°17.636 2°52.602 19.9171 4.348195 31.319997 2.412189
2010-08-06 05:28:25 51°17.654 2°52.6 19.9179 4.347245 31.313926 2.447013
2010-08-06 05:28:30 51°17.672 2°52.599 19.9175 4.346612 31.310925 2.412189
2010-08-06 05:28:35 51°17.689 2°52.598 19.9119 4.345768 31.304134 2.307717
2010-08-06 05:28:40 51°17.707 2°52.595 19.9046 4.345768 31.304134 2.307717
2010-08-06 05:28:45 51°17.725 2°52.595 19.91 4.345768 31.306749 2.307717
2010-08-06 05:29:06 51°17.8 2°52.589 19.9111 4.340808 31.280442 2.133597
2010-08-06 05:29:44 51°17.936 2°52.576 19.896 4.335215 31.24641 1.959476
2010-08-06 05:29:49 51°17.954 2°52.575 19.893 4.334687 31.245299 1.9943
2010-08-06 05:31:15 51°18.264 2°52.543 19.8857 4.334793 31.263405 1.924652
2010-08-06 05:31:20 51°18.282 2°52.541 19.8787 4.338487 31.296294 1.9943
2010-08-06 05:31:25 51°18.301 2°52.539 19.8777 4.337326 31.296373 1.855004
2010-08-06 05:31:30 51°18.319 2°52.537 19.8796 4.337326 31.300042 1.82018
2010-08-06 05:31:35 51°18.337 2°52.535 19.8667 4.338487 31.307823 1.82018
2010-08-06 05:31:40 51°18.355 2°52.534 19.8646 4.338487 31.307823 1.82018
2010-08-06 05:31:45 51°18.373 2°52.531 19.8593 4.337432 31.301417 1.82018
2010-08-06 05:31:50 51°18.391 2°52.53 19.8559 4.33701 31.299588 1.855004
2010-08-06 05:31:55 51°18.409 2°52.527 19.8543 4.336271 31.293111 1.785356
2010-08-06 05:32:00 51°18.427 2°52.526 19.8507 4.335532 31.287158 1.82018
2010-08-06 05:32:05 51°18.446 2°52.524 19.8553 4.33416 31.275057 1.855004
2010-08-06 05:32:10 51°18.464 2°52.522 19.8474 4.33416 31.275057 1.855004
2010-08-06 05:32:15 51°18.482 2°52.52 19.8452 4.332894 31.267472 1.82018
2010-08-06 05:32:20 51°18.5 2°52.519 19.8421 4.331733 31.259689 1.855004
2010-08-06 05:32:25 51°18.518 2°52.516 19.8344 4.330256 31.250403 1.889828
2010-08-06 05:32:30 51°18.536 2°52.516 19.837 4.328778 31.239022 1.82018
2010-08-06 05:32:35 51°18.553 2°52.512 19.8218 4.328462 31.236994 1.855004
2010-08-06 05:32:40 51°18.572 2°52.511 19.8105 4.328462 31.236994 1.855004
2010-08-06 05:32:45 51°18.589 2°52.509 19.8061 4.327301 31.227641 1.82018
2010-08-06 05:32:50 51°18.608 2°52.507 19.799 4.326668 31.224109 1.855004
2010-08-06 05:32:55 51°18.626 2°52.505 19.7895 4.325929 31.220772 1.889828
2010-08-06 05:33:00 51°18.644 2°52.503 19.7867 4.325085 31.215538 1.889828
2010-08-06 05:33:05 51°18.662 2°52.501 19.7822 4.324346 31.211155 1.82018
2010-08-06 05:33:10 51°18.68 2°52.499 19.7787 4.324346 31.211155 1.82018
2010-08-06 05:33:15 51°18.698 2°52.497 19.7791 4.324557 31.215994 1.750532
2010-08-06 05:33:20 51°18.716 2°52.495 19.7797 4.325296 31.227181 1.64606
2010-08-06 05:33:25 51°18.734 2°52.493 19.7809 4.326246 31.240073 1.611236
2010-08-06 05:33:30 51°18.752 2°52.491 19.7811 4.326351 31.247211 1.611236
2010-08-06 05:33:35 51°18.77 2°52.488 19.7804 4.326352 31.251928 1.541588
2010-08-06 05:33:40 51°18.788 2°52.488 19.7757 4.326352 31.251928 1.541588
2010-08-06 05:33:45 51°18.806 2°52.484 19.7791 4.32593 31.25429 1.576412
2010-08-06 05:33:50 51°18.824 2°52.483 19.7705 4.32593 31.257436 1.576412
2010-08-06 05:33:55 51°18.842 2°52.48 19.7703 4.32593 31.260583 1.506764
2010-08-06 05:34:00 51°18.86 2°52.479 19.7524 4.325296 31.257048 1.367467
2010-08-06 05:34:05 51°18.878 2°52.476 19.7548 4.324874 31.253642 1.297819
2010-08-06 05:34:10 51°18.896 2°52.474 19.7495 4.324874 31.253642 1.297819
2010-08-06 05:34:15 51°18.914 2°52.472 19.7505 4.323819 31.246177 1.193347
2010-08-06 05:34:20 51°18.932 2°52.47 19.7439 4.322447 31.235633 1.158523
2010-08-06 05:34:25 51°18.95 2°52.468 19.7373 4.32002 31.217623 1.054051
2010-08-06 05:34:30 51°18.968 2°52.466 19.744 4.317593 31.201708 0.984403
2010-08-06 05:34:35 51°18.985 2°52.464 19.7374 4.314744 31.180291 0.914755
2010-08-06 05:34:40 51°19.003 2°52.462 19.7435 4.314744 31.180291 0.914755
2010-08-06 05:34:45 51°19.021 2°52.459 19.7343 4.311156 31.156055 0.845107
2010-08-06 05:34:50 51°19.039 2°52.458 19.7346 4.308306 31.137251 0.845107
2010-08-06 05:34:55 51°19.057 2°52.455 19.7372 4.305457 31.115833 0.740634
2010-08-06 05:35:00 51°19.075 2°52.454 19.7295 4.303347 31.102985 0.740634
2010-08-06 05:35:05 51°19.093 2°52.452 19.7313 4.301025 31.087388 0.70581
2010-08-06 05:35:10 51°19.111 2°52.45 19.7362 4.301025 31.087388 0.70581
2010-08-06 05:35:16 51°19.133 2°52.447 19.7308 4.299548 31.077035 0.636162
2010-08-06 05:35:20 51°19.147 2°52.446 19.7323 4.297543 31.062947 0.70581
2010-08-06 05:35:25 51°19.165 2°52.444 19.7368 4.296382 31.055147 0.670986
2010-08-06 05:35:30 51°19.183 2°52.442 19.7299 4.295538 31.049379 0.670986
2010-08-06 05:35:35 51°19.202 2°52.44 19.7346 4.294799 31.044985 0.601338
2010-08-06 05:35:40 51°19.22 2°52.438 19.7323 4.294799 31.044985 0.601338
2010-08-06 05:35:45 51°19.238 2°52.436 19.7305 4.293955 31.039216 0.636162
2010-08-06 05:35:50 51°19.256 2°52.434 19.7289 4.294166 31.041441 0.601338
2010-08-06 05:35:55 51°19.274 2°52.432 19.7283 4.293955 31.041303 0.636162
2010-08-06 05:36:00 51°19.292 2°52.431 19.7246 4.293849 31.039408 0.601338
2010-08-06 05:36:05 51°19.31 2°52.428 19.727 4.294271 31.043335 0.670986
2010-08-06 05:36:10 51°19.328 2°52.427 19.7226 4.294271 31.043335 0.670986
2010-08-06 05:36:15 51°19.346 2°52.425 19.72 4.294377 31.044709 0.636162
2010-08-06 05:36:20 51°19.364 2°52.422 19.7263 4.29501 31.049818 0.70581
2010-08-06 05:36:25 51°19.382 2°52.421 19.7263 4.295116 31.051191 0.670986
2010-08-06 05:36:30 51°19.4 2°52.419 19.7252 4.295749 31.056822 0.670986
2010-08-06 05:36:35 51°19.418 2°52.417 19.7238 4.295538 31.056684 0.740634
2010-08-06 05:36:40 51°19.436 2°52.415 19.7218 4.295538 31.056684 0.740634
2010-08-06 05:36:44 51°19.45 2°52.414 19.7126 4.296276 31.06369 0.845107
2010-08-06 05:36:50 51°19.472 2°52.411 19.713 4.295854 31.061849 0.845107
2010-08-06 05:36:56 51°19.493 2°52.409 19.7089 4.297543 31.075999 0.949579
2010-08-06 05:37:00 51°19.508 2°52.407 19.7061 4.297859 31.078032 0.879931
2010-08-06 05:37:05 51°19.526 2°52.405 19.7068 4.299337 31.089956 0.984403
2010-08-06 05:37:10 51°19.544 2°52.403 19.7092 4.299337 31.089956 0.984403
2010-08-06 05:37:15 51°19.562 2°52.401 19.7064 4.299337 31.088911 0.984403
2010-08-06 05:37:20 51°19.58 2°52.399 19.7028 4.29997 31.095067 1.019227
2010-08-06 05:37:25 51°19.598 2°52.398 19.6985 4.301342 31.109278 1.054051
2010-08-06 05:37:30 51°19.616 2°52.395 19.7048 4.30187 31.116676 1.158523
2010-08-06 05:37:35 51°19.634 2°52.394 19.6991 4.302819 31.126438 1.193347
2010-08-06 05:37:40 51°19.652 2°52.392 19.7032 4.302819 31.126438 1.193347
2010-08-06 05:37:45 51°19.67 2°52.39 19.698 4.303769 31.136725 1.193347
2010-08-06 05:37:50 51°19.688 2°52.388 19.6968 4.305458 31.150361 1.262995
2010-08-06 05:37:55 51°19.706 2°52.386 19.6982 4.306408 31.159604 1.262995
2010-08-06 05:38:00 51°19.723 2°52.384 19.6976 4.30894 31.18111 1.437116
2010-08-06 05:38:05 51°19.741 2°52.383 19.6887 4.311156 31.200587 1.367467
2010-08-06 05:38:10 51°19.759 2°52.38 19.69 4.311156 31.200587 1.367467
2010-08-06 05:38:15 51°19.777 2°52.378 19.6909 4.313478 31.220395 1.437116
2010-08-06 05:38:20 51°19.795 2°52.375 19.6929 4.315694 31.238829 1.402292
2010-08-06 05:38:25 51°19.813 2°52.374 19.6946 4.31791 31.257789 1.402292
2010-08-06 05:38:30 51°19.832 2°52.372 19.6938 4.320654 31.281545 1.402292
2010-08-06 05:38:35 51°19.85 2°52.37 19.6886 4.322976 31.301365 1.367467
2010-08-06 05:38:40 51°19.868 2°52.368 19.6917 4.322976 31.301365 1.367467
2010-08-06 05:38:45 51°19.886 2°52.366 19.6937 4.325298 31.321189 1.367467
2010-08-06 05:38:50 51°19.904 2°52.364 19.6962 4.328358 31.346989 1.437116
2010-08-06 05:38:55 51°19.922 2°52.363 19.7009 4.330996 31.369908 1.402292
2010-08-06 05:39:00 51°19.94 2°52.361 19.701 4.332791 31.384418 1.402292
2010-08-06 05:39:05 51°19.959 2°52.359 19.6945 4.334901 31.40149 1.437116
2010-08-06 05:39:10 51°19.977 2°52.358 19.6928 4.334901 31.40149 1.437116
2010-08-06 05:39:15 51°19.995 2°52.356 19.7008 4.338067 31.426572 1.402292
2010-08-06 05:39:20 51°20.013 2°52.355 19.7028 4.340811 31.450358 1.367467
2010-08-06 05:39:25 51°20.031 2°52.353 19.695 4.343555 31.470441 1.402292
2010-08-06 05:39:30 51°20.049 2°52.351 19.6902 4.345454 31.485812 1.437116
2010-08-06 05:39:35 51°20.067 2°52.35 19.692 4.34651 31.491702 1.332643
2010-08-06 05:39:40 51°20.085 2°52.347 19.685 4.34651 31.491702 1.332643
2010-08-06 05:39:45 51°20.103 2°52.346 19.69 4.347987 31.503127 1.402292
2010-08-06 05:39:50 51°20.121 2°52.344 19.6806 4.349254 31.514435 1.367467
2010-08-06 05:39:55 51°20.139 2°52.341 19.6795 4.350203 31.522122 1.47194
2010-08-06 05:40:00 51°20.157 2°52.339 19.6704 4.350942 31.527039 1.437116
2010-08-06 05:40:05 51°20.175 2°52.337 19.6743 4.35242 31.540058 1.402292
2010-08-06 05:40:10 51°20.193 2°52.335 19.6639 4.35242 31.540058 1.402292
2010-08-06 05:40:15 51°20.211 2°52.334 19.6661 4.352736 31.544212 1.437116
2010-08-06 05:40:20 51°20.229 2°52.333 19.6599 4.353897 31.554671 1.402292
2010-08-06 05:40:25 51°20.248 2°52.333 19.675 4.354425 31.560535 1.402292
2010-08-06 05:40:30 51°20.266 2°52.333 19.68 4.35548 31.572267 1.402292
2010-08-06 05:40:35 51°20.284 2°52.333 19.6739 4.356747 31.586242 1.297819
2010-08-06 05:40:40 51°20.302 2°52.334 19.6846 4.356747 31.586242 1.297819
2010-08-06 05:40:45 51°20.32 2°52.335 19.6827 4.358224 31.600866 1.297819
2010-08-06 05:40:50 51°20.338 2°52.336 19.6907 4.361179 31.626929 1.193347
2010-08-06 05:40:55 51°20.356 2°52.337 19.6815 4.364029 31.652143 1.088875
2010-08-06 05:41:00 51°20.374 2°52.337 19.6848 4.366773 31.676508 1.123699
2010-08-06 05:41:05 51°20.392 2°52.338 19.6834 4.367828 31.683993 1.054051
2010-08-06 05:41:10 51°20.41 2°52.339 19.6867 4.367828 31.683993 1.054051
2010-08-06 05:41:15 51°20.428 2°52.339 19.6887 4.369939 31.698962 1.054051
2010-08-06 05:41:20 51°20.446 2°52.341 19.6898 4.371944 31.714143 1.019227
2010-08-06 05:41:25 51°20.464 2°52.341 19.6888 4.372999 31.719491 0.949579
2010-08-06 05:41:30 51°20.482 2°52.342 19.6843 4.374055 31.725372 0.914755
2010-08-06 05:41:35 51°20.5 2°52.342 19.6846 4.375849 31.739375 0.914755
2010-08-06 05:41:40 51°20.517 2°52.343 19.6795 4.375849 31.739375 0.914755
2010-08-06 05:41:45 51°20.536 2°52.343 19.6793 4.376904 31.748461 0.914755
2010-08-06 05:41:50 51°20.554 2°52.344 19.6755 4.377326 31.750813 0.914755
2010-08-06 05:41:55 51°20.571 2°52.345 19.6795 4.377643 31.751241 0.845107
2010-08-06 05:42:00 51°20.589 2°52.346 19.6817 4.378171 31.756051 0.810283
2010-08-06 05:42:04 51°20.604 2°52.346 19.6743 4.378698 31.760327 0.845107
2010-08-06 05:42:10 51°20.625 2°52.347 19.6737 4.378698 31.760327 0.845107
2010-08-06 05:42:15 51°20.643 2°52.348 19.6773 4.379437 31.766314 0.810283
2010-08-06 05:42:20 51°20.661 2°52.349 19.6682 4.377115 31.748568 0.810283
2010-08-06 05:42:25 51°20.679 2°52.349 19.6721 4.380704 31.778717 0.740634
2010-08-06 05:42:30 51°20.697 2°52.35 19.6764 4.380915 31.782567 0.810283
2010-08-06 05:42:35 51°20.714 2°52.351 19.6671 4.38102 31.785028 0.775459
2010-08-06 05:42:40 51°20.732 2°52.351 19.666 4.38102 31.785028 0.775459
2010-08-06 05:42:45 51°20.75 2°52.352 19.6636 4.381337 31.786524 0.670986
2010-08-06 05:42:50 51°20.768 2°52.353 19.656 4.381548 31.789306 0.740634
2010-08-06 05:42:55 51°20.786 2°52.354 19.645 4.38197 31.794333 0.740634
2010-08-06 05:43:00 51°20.804 2°52.354 19.644 4.382498 31.800753 0.70581
2010-08-06 05:43:04 51°20.818 2°52.355 19.6366 4.383553 31.808773 0.670986
2010-08-06 05:43:10 51°20.84 2°52.356 19.6315 4.383553 31.808773 0.670986
2010-08-06 05:43:15 51°20.858 2°52.357 19.6328 4.38292 31.806318 0.740634
2010-08-06 05:43:20 51°20.876 2°52.357 19.6277 4.383026 31.808781 0.740634
2010-08-06 05:43:25 51°20.894 2°52.358 19.6263 4.383448 31.813275 0.70581
2010-08-06 05:43:30 51°20.912 2°52.359 19.6261 4.383659 31.818738 0.70581
2010-08-06 05:43:35 51°20.93 2°52.359 19.6197 4.383976 31.826131 0.670986
2010-08-06 05:43:40 51°20.948 2°52.36 19.6164 4.383976 31.826131 0.670986
2010-08-06 05:43:45 51°20.966 2°52.361 19.6221 4.384187 31.831597 0.601338
2010-08-06 05:43:49 51°20.981 2°52.362 19.6169 4.385664 31.84895 0.601338
2010-08-06 05:43:55 51°21.002 2°52.363 19.6143 4.386403 31.858166 0.566514
2010-08-06 05:44:00 51°21.02 2°52.364 19.6156 4.38767 31.871667 0.566514
2010-08-06 05:44:05 51°21.038 2°52.365 19.6112 4.38862 31.882064 0.53169
2010-08-06 05:44:10 51°21.056 2°52.366 19.615 4.38862 31.882064 0.53169
2010-08-06 05:44:16 51°21.078 2°52.366 19.6162 4.389675 31.892782 0.53169
2010-08-06 05:44:20 51°21.092 2°52.367 19.6103 4.391258 31.908324 0.496866
2010-08-06 05:44:25 51°21.111 2°52.367 19.6129 4.391258 31.910476 0.496866
2010-08-06 05:44:30 51°21.129 2°52.368 19.6108 4.391997 31.917552 0.53169
2010-08-06 05:44:35 51°21.147 2°52.369 19.6151 4.392947 31.926342 0.462042
2010-08-06 05:44:40 51°21.165 2°52.369 19.6146 4.392947 31.926342 0.462042
2010-08-06 05:44:45 51°21.183 2°52.37 19.6156 4.393791 31.935353 0.53169
2010-08-06 05:44:50 51°21.201 2°52.37 19.6123 4.394847 31.945002 0.496866
2010-08-06 05:44:55 51°21.219 2°52.371 19.6102 4.395585 31.951542 0.462042
2010-08-06 05:45:00 51°21.237 2°52.371 19.6119 4.396113 31.955289 0.427218
2010-08-06 05:45:05 51°21.255 2°52.372 19.6169 4.397063 31.963005 0.496866
2010-08-06 05:45:10 51°21.273 2°52.372 19.6216 4.397063 31.963005 0.496866
2010-08-06 05:45:15 51°21.291 2°52.373 19.6285 4.397591 31.96837 0.462042
2010-08-06 05:45:20 51°21.309 2°52.374 19.6225 4.397591 31.96783 0.496866
2010-08-06 05:45:25 51°21.328 2°52.374 19.6263 4.398329 31.973292 0.53169
2010-08-06 05:45:30 51°21.346 2°52.375 19.6305 4.399385 31.982945 0.496866
2010-08-06 05:45:35 51°21.364 2°52.375 19.6377 4.400124 31.989486 0.496866
2010-08-06 05:45:40 51°21.382 2°52.376 19.6402 4.400124 31.989486 0.496866
2010-08-06 05:45:45 51°21.4 2°52.376 19.6355 4.400862 31.994409 0.53169
2010-08-06 05:45:50 51°21.418 2°52.377 19.6362 4.40139 31.997617 0.53169
2010-08-06 05:45:55 51°21.436 2°52.377 19.6313 4.401707 31.998569 0.566514
2010-08-06 05:46:00 51°21.454 2°52.377 19.6317 4.403817 32.013558 0.53169
2010-08-06 05:46:05 51°21.472 2°52.378 19.6283 4.405401 32.024258 0.53169
2010-08-06 05:46:10 51°21.49 2°52.378 19.6328 4.405401 32.024258 0.53169
2010-08-06 05:46:16 51°21.511 2°52.379 19.635 4.405928 32.024765 0.601338
2010-08-06 05:46:20 51°21.526 2°52.379 19.6323 4.407195 32.031811 0.566514
2010-08-06 05:46:25 51°21.544 2°52.379 19.6309 4.408144 32.038446 0.53169
2010-08-06 05:46:30 51°21.562 2°52.38 19.6328 4.408672 32.043273 0.496866
2010-08-06 05:46:35 51°21.58 2°52.38 19.6345 4.408567 32.043496 0.566514
2010-08-06 05:46:40 51°21.598 2°52.38 19.637 4.408567 32.043496 0.566514
2010-08-06 05:46:45 51°21.616 2°52.381 19.6349 4.407828 32.038576 0.53169
2010-08-06 05:46:50 51°21.634 2°52.381 19.6379 4.408039 32.03921 0.53169
2010-08-06 05:46:55 51°21.652 2°52.382 19.6344 4.407511 32.034923 0.496866
2010-08-06 05:47:00 51°21.67 2°52.382 19.6389 4.40825 32.040384 0.566514
2010-08-06 05:47:05 51°21.688 2°52.384 19.6429 4.408461 32.042639 0.496866
2010-08-06 05:47:10 51°21.706 2°52.386 19.6454 4.408461 32.042639 0.496866
2010-08-06 05:47:15 51°21.724 2°52.388 19.648 4.408567 32.043496 0.427218
2010-08-06 05:47:20 51°21.741 2°52.391 19.6511 4.407195 32.030731 0.462042
2010-08-06 05:47:25 51°21.759 2°52.394 19.6532 4.407406 32.031906 0.462042
2010-08-06 05:47:30 51°21.777 2°52.398 19.6576 4.406772 32.026222 0.427218
2010-08-06 05:47:35 51°21.795 2°52.4 19.6563 4.407195 32.028571 0.392394
2010-08-06 05:47:40 51°21.813 2°52.404 19.6557 4.407195 32.028571 0.392394
2010-08-06 05:47:45 51°21.831 2°52.408 19.6535 4.407194 32.027491 0.392394
2010-08-06 05:47:50 51°21.849 2°52.412 19.651 4.406878 32.02276 0.392394
2010-08-06 05:47:55 51°21.867 2°52.415 19.6425 4.407089 32.022315 0.392394
2010-08-06 05:48:00 51°21.885 2°52.419 19.6452 4.406878 32.018982 0.35757
2010-08-06 05:48:05 51°21.903 2°52.423 19.6318 4.407616 32.021743 0.392394
2010-08-06 05:48:10 51°21.921 2°52.427 19.6298 4.407616 32.021743 0.392394
2010-08-06 05:48:15 51°21.939 2°52.431 19.6201 4.407722 32.02152 0.392394
2010-08-06 05:48:20 51°21.957 2°52.434 19.6181 4.407722 32.020441 0.392394
2010-08-06 05:48:25 51°21.975 2°52.439 19.6225 4.407828 32.021838 0.427218
2010-08-06 05:48:30 51°21.993 2°52.442 19.6219 4.407405 32.020029 0.427218
2010-08-06 05:48:35 51°22.011 2°52.447 19.623 4.40635 32.014158 0.392394
2010-08-06 05:48:40 51°22.029 2°52.451 19.6265 4.40635 32.014158 0.392394
2010-08-06 05:48:45 51°22.047 2°52.454 19.6289 4.404239 32.001335 0.392394
2010-08-06 05:48:50 51°22.065 2°52.458 19.6296 4.402551 31.990859 0.392394
2010-08-06 05:48:55 51°22.083 2°52.462 19.6341 4.400651 31.980286 0.35757
2010-08-06 05:49:00 51°22.101 2°52.466 19.6352 4.399068 31.970665 0.392394
2010-08-06 05:49:05 51°22.119 2°52.469 19.6379 4.398329 31.965743 0.35757
2010-08-06 05:49:10 51°22.137 2°52.473 19.6415 4.398329 31.965743 0.35757
2010-08-06 05:49:15 51°22.155 2°52.476 19.6416 4.397802 31.962536 0.35757
2010-08-06 05:49:20 51°22.173 2°52.481 19.6366 4.397907 31.963393 0.427218
2010-08-06 05:49:25 51°22.191 2°52.484 19.6341 4.397696 31.960061 0.392394
2010-08-06 05:49:30 51°22.209 2°52.488 19.6281 4.397907 31.95962 0.35757
2010-08-06 05:49:36 51°22.231 2°52.492 19.6227 4.398646 31.964002 0.35757
2010-08-06 05:49:40 51°22.245 2°52.496 19.6163 4.398646 31.964002 0.35757
2010-08-06 05:49:45 51°22.263 2°52.498 19.6161 4.398329 31.959276 0.392394
2010-08-06 05:49:50 51°22.281 2°52.503 19.613 4.396324 31.94084 0.392394
2010-08-06 05:49:55 51°22.299 2°52.505 19.6132 4.396641 31.941795 0.35757
2010-08-06 05:50:00 51°22.317 2°52.509 19.6071 4.397063 31.947376 0.35757
2010-08-06 05:50:05 51°22.335 2°52.513 19.6035 4.396324 31.942456 0.35757
2010-08-06 05:50:10 51°22.353 2°52.517 19.6022 4.396324 31.942456 0.35757
2010-08-06 05:50:15 51°22.372 2°52.52 19.6014 4.394002 31.926835 0.35757
2010-08-06 05:50:20 51°22.39 2°52.523 19.6078 4.393369 31.924385 0.322746
2010-08-06 05:50:25 51°22.408 2°52.527 19.613 4.39358 31.928791 0.35757
2010-08-06 05:50:30 51°22.426 2°52.53 19.6169 4.392208 31.921419 0.322746
2010-08-06 05:50:35 51°22.444 2°52.534 19.6257 4.38957 31.900532 0.322746
2010-08-06 05:50:40 51°22.463 2°52.538 19.6311 4.38957 31.900532 0.322746
2010-08-06 05:50:45 51°22.481 2°52.541 19.6355 4.387142 31.884586 0.287922
2010-08-06 05:50:50 51°22.499 2°52.545 19.638 4.388409 31.897561 0.322746
2010-08-06 05:50:55 51°22.518 2°52.548 19.6432 4.387987 31.895209 0.322746
2010-08-06 05:51:00 51°22.536 2°52.552 19.6447 4.385665 31.876891 0.287922
2010-08-06 05:51:05 51°22.554 2°52.554 19.645 4.388303 31.894552 0.35757
2010-08-06 05:51:10 51°22.572 2°52.559 19.6396 4.388303 31.894552 0.35757
2010-08-06 05:51:15 51°22.59 2°52.562 19.6462 4.38862 31.894433 0.322746
2010-08-06 05:51:20 51°22.609 2°52.566 19.6369 4.389147 31.893338 0.322746
2010-08-06 05:51:25 51°22.627 2°52.568 19.6395 4.389042 31.889792 0.35757
2010-08-06 05:51:30 51°22.645 2°52.573 19.6382 4.390414 31.89609 0.35757
2010-08-06 05:51:36 51°22.667 2°52.575 19.6385 4.390203 31.890613 0.35757
2010-08-06 05:51:40 51°22.681 2°52.579 19.6313 4.390203 31.890613 0.35757
2010-08-06 05:51:45 51°22.699 2°52.581 19.628 4.389992 31.887824 0.392394
2010-08-06 05:51:50 51°22.717 2°52.585 19.6238 4.389992 31.886749 0.35757
2010-08-06 05:51:55 51°22.735 2°52.587 19.6275 4.389992 31.885674 0.35757
2010-08-06 05:52:00 51°22.753 2°52.592 19.6286 4.390414 31.8891 0.392394
2010-08-06 05:52:05 51°22.771 2°52.594 19.6306 4.390625 31.892426 0.35757
2010-08-06 05:52:10 51°22.789 2°52.598 19.6296 4.390625 31.892426 0.35757
2010-08-06 05:52:15 51°22.808 2°52.601 19.6271 4.391258 31.897566 0.392394
2010-08-06 05:52:20 51°22.826 2°52.605 19.6286 4.391786 31.903462 0.392394
2010-08-06 05:52:24 51°22.84 2°52.607 19.6271 4.392102 31.907646 0.392394
2010-08-06 05:52:30 51°22.862 2°52.612 19.6276 4.391997 31.910017 0.427218
2010-08-06 05:52:35 51°22.881 2°52.614 19.627 4.391891 31.90916 0.427218
2010-08-06 05:52:40 51°22.899 2°52.619 19.6261 4.391891 31.90916 0.427218
2010-08-06 05:52:45 51°22.917 2°52.621 19.6255 4.391575 31.907128 0.392394
2010-08-06 05:52:50 51°22.935 2°52.625 19.6284 4.390836 31.900593 0.392394
2010-08-06 05:52:56 51°22.957 2°52.629 19.6252 4.39073 31.900274 0.392394
2010-08-06 05:53:00 51°22.972 2°52.632 19.6216 4.390836 31.902206 0.392394
2010-08-06 05:53:05 51°22.99 2°52.635 19.6243 4.390308 31.896309 0.462042
2010-08-06 05:53:10 51°23.008 2°52.639 19.6285 4.390308 31.896309 0.462042
2010-08-06 05:53:15 51°23.026 2°52.642 19.631 4.390519 31.899098 0.427218
2010-08-06 05:53:20 51°23.044 2°52.646 19.6281 4.391153 31.904777 0.427218
2010-08-06 05:53:24 51°23.058 2°52.649 19.631 4.391153 31.905853 0.462042
2010-08-06 05:53:30 51°23.079 2°52.653 19.632 4.391364 31.907566 0.427218
2010-08-06 05:53:35 51°23.097 2°52.656 19.6343 4.39168 31.910137 0.427218
2010-08-06 05:53:40 51°23.115 2°52.661 19.6358 4.39168 31.910137 0.427218
2010-08-06 05:53:45 51°23.133 2°52.665 19.6297 4.392102 31.913564 0.462042
2010-08-06 05:53:50 51°23.151 2°52.67 19.6348 4.393158 31.922133 0.496866
2010-08-06 05:53:55 51°23.169 2°52.674 19.6326 4.393158 31.924287 0.462042
2010-08-06 05:54:00 51°23.187 2°52.681 19.6313 4.393791 31.926736 0.462042
2010-08-06 05:54:05 51°23.205 2°52.685 19.6346 4.395902 31.941182 0.462042
2010-08-06 05:54:10 51°23.222 2°52.691 19.6358 4.395902 31.941182 0.462042
2010-08-06 05:54:15 51°23.24 2°52.697 19.6379 4.398118 31.958639 0.427218
2010-08-06 05:54:20 51°23.257 2°52.702 19.635 4.399174 31.96667 0.427218
2010-08-06 05:54:25 51°23.275 2°52.708 19.6309 4.400123 31.973305 0.427218
2010-08-06 05:54:30 51°23.293 2°52.713 19.6296 4.400229 31.975779 0.53169
2010-08-06 05:54:36 51°23.314 2°52.721 19.6284 4.40044 31.976954 0.427218
2010-08-06 05:54:40 51°23.329 2°52.725 19.6268 4.40044 31.976954 0.427218
2010-08-06 05:54:44 51°23.343 2°52.73 19.631 4.399596 31.96902 0.427218
2010-08-06 05:54:50 51°23.364 2°52.736 19.6305 4.400018 31.972987 0.496866
2010-08-06 05:54:55 51°23.382 2°52.742 19.6281 4.40044 31.975337 0.462042
2010-08-06 05:55:00 51°23.399 2°52.747 19.626 4.400123 31.972766 0.496866
2010-08-06 05:55:05 51°23.417 2°52.754 19.6228 4.399912 31.970513 0.462042
2010-08-06 05:55:10 51°23.434 2°52.758 19.6294 4.399912 31.970513 0.462042
2010-08-06 05:55:16 51°23.456 2°52.766 19.6296 4.39949 31.970319 0.496866
2010-08-06 05:55:20 51°23.47 2°52.77 19.6323 4.400123 31.975461 0.496866
2010-08-06 05:55:25 51°23.488 2°52.775 19.6346 4.399596 31.972254 0.427218
2010-08-06 05:55:30 51°23.505 2°52.781 19.639 4.399596 31.972794 0.462042
2010-08-06 05:55:35 51°23.523 2°52.785 19.6402 4.399174 31.969365 0.462042
2010-08-06 05:55:40 51°23.541 2°52.792 19.6417 4.399174 31.969365 0.462042
2010-08-06 05:55:44 51°23.555 2°52.795 19.6374 4.399807 31.975586 0.462042
2010-08-06 05:55:50 51°23.577 2°52.803 19.6443 4.399596 31.974411 0.462042
2010-08-06 05:55:55 51°23.595 2°52.808 19.6447 4.400862 31.982 0.53169
2010-08-06 05:56:00 51°23.612 2°52.814 19.6454 4.40234 31.994 0.496866
2010-08-06 05:56:05 51°23.63 2°52.819 19.6474 4.403817 32.003841 0.462042
2010-08-06 05:56:10 51°23.648 2°52.825 19.6508 4.403817 32.003841 0.462042
2010-08-06 05:56:16 51°23.67 2°52.832 19.6501 4.406245 32.021397 0.462042
2010-08-06 05:56:20 51°23.684 2°52.835 19.6506 4.407617 32.03092 0.462042
2010-08-06 05:56:25 51°23.702 2°52.84 19.6403 4.409094 32.04346 0.462042
2010-08-06 05:56:30 51°23.72 2°52.847 19.6429 4.410677 32.055238 0.462042
2010-08-06 05:56:35 51°23.737 2°52.851 19.6434 4.41321 32.074731 0.462042
2010-08-06 05:56:40 51°23.755 2°52.858 19.6407 4.41321 32.074731 0.462042
2010-08-06 05:56:45 51°23.773 2°52.862 19.6396 4.414582 32.082631 0.462042
2010-08-06 05:56:50 51°23.791 2°52.869 19.6379 4.415954 32.093235 0.496866
2010-08-06 05:56:55 51°23.809 2°52.873 19.6269 4.417643 32.104787 0.53169
2010-08-06 05:57:00 51°23.826 2°52.879 19.613 4.417326 32.102215 0.496866
2010-08-06 05:57:05 51°23.844 2°52.885 19.6063 4.418065 32.10984 0.462042
2010-08-06 05:57:10 51°23.862 2°52.891 19.6043 4.418065 32.10984 0.462042
2010-08-06 05:57:15 51°23.879 2°52.896 19.6038 4.418171 32.112321 0.427218
2010-08-06 05:57:20 51°23.897 2°52.902 19.6024 4.41796 32.111148 0.462042
2010-08-06 05:57:25 51°23.914 2°52.907 19.6073 4.416482 32.100768 0.462042
2010-08-06 05:57:30 51°23.932 2°52.913 19.5998 4.414582 32.086958 0.427218
2010-08-06 05:57:36 51°23.953 2°52.919 19.5994 4.413316 32.08262 0.496866
2010-08-06 05:57:40 51°23.967 2°52.925 19.5923 4.413316 32.08262 0.496866
2010-08-06 05:57:45 51°23.985 2°52.93 19.592 4.411838 32.074402 0.462042
2010-08-06 05:57:50 51°24.002 2°52.936 19.5884 4.410783 32.071235 0.462042
2010-08-06 05:57:55 51°24.02 2°52.942 19.5891 4.409622 32.06667 0.462042
2010-08-06 05:58:00 51°24.038 2°52.947 19.5892 4.408145 32.057366 0.462042
2010-08-06 05:58:05 51°24.056 2°52.953 19.5883 4.408039 32.056508 0.496866
2010-08-06 05:58:10 51°24.073 2°52.958 19.5919 4.408039 32.056508 0.496866
2010-08-06 05:58:15 51°24.091 2°52.965 19.5898 4.4073 32.052667 0.496866
2010-08-06 05:58:20 51°24.109 2°52.97 19.5884 4.407406 32.056229 0.496866
2010-08-06 05:58:25 51°24.126 2°52.978 19.5856 4.407723 32.060967 0.427218
2010-08-06 05:58:30 51°24.144 2°52.982 19.5939 4.407934 32.064307 0.462042
2010-08-06 05:58:35 51°24.162 2°52.99 19.5839 4.408567 32.071079 0.462042
2010-08-06 05:58:40 51°24.18 2°52.993 19.5872 4.408567 32.071079 0.462042
2010-08-06 05:58:45 51°24.197 2°53.001 19.5864 4.409411 32.08011 0.392394
2010-08-06 05:58:50 51°24.215 2°53.004 19.5905 4.409939 32.083859 0.462042
2010-08-06 05:58:55 51°24.233 2°53.012 19.5864 4.410889 32.091041 0.462042
2010-08-06 05:59:00 51°24.251 2°53.016 19.5723 4.411839 32.100932 0.462042
2010-08-06 05:59:05 51°24.268 2°53.022 19.5714 4.412578 32.10694 0.427218
2010-08-06 05:59:10 51°24.286 2°53.028 19.5521 4.412578 32.10694 0.427218
2010-08-06 05:59:15 51°24.303 2°53.034 19.5427 4.413422 32.113264 0.427218
2010-08-06 05:59:20 51°24.321 2°53.04 19.5276 4.414161 32.121441 0.462042
2010-08-06 05:59:25 51°24.338 2°53.045 19.5267 4.415216 32.129483 0.392394
2010-08-06 05:59:30 51°24.356 2°53.051 19.514 4.416166 32.137209 0.392394
2010-08-06 05:59:36 51°24.377 2°53.056 19.5193 4.416588 32.141185 0.392394
2010-08-06 05:59:40 51°24.391 2°53.062 19.5172 4.416588 32.141185 0.392394
2010-08-06 05:59:45 51°24.409 2°53.067 19.5212 4.417644 32.155199 0.392394
2010-08-06 05:59:50 51°24.426 2°53.073 19.5175 4.419122 32.174828 0.392394
2010-08-06 05:59:56 51°24.447 2°53.08 19.5129 4.421444 32.202428 0.427218
2010-08-06 06:00:00 51°24.461 2°53.086 19.5167 4.423027 32.222396 0.462042
2010-08-06 06:00:05 51°24.478 2°53.092 19.5214 4.424188 32.240025 0.392394
2010-08-06 06:00:10 51°24.496 2°53.098 19.5183 4.424188 32.240025 0.392394
2010-08-06 06:00:15 51°24.513 2°53.103 19.5186 4.425138 32.255398 0.35757
2010-08-06 06:00:20 51°24.531 2°53.109 19.527 4.426299 32.267586 0.392394
2010-08-06 06:00:25 51°24.548 2°53.115 19.5258 4.427143 32.276105 0.392394
2010-08-06 06:00:30 51°24.566 2°53.121 19.5249 4.428304 32.286659 0.392394
2010-08-06 06:00:35 51°24.584 2°53.126 19.53 4.430099 32.303469 0.392394
2010-08-06 06:00:40 51°24.601 2°53.132 19.5265 4.430099 32.303469 0.392394
2010-08-06 06:00:45 51°24.619 2°53.137 19.5245 4.431365 32.313247 0.392394
2010-08-06 06:00:50 51°24.636 2°53.143 19.5279 4.433054 32.327013 0.462042
2010-08-06 06:00:56 51°24.658 2°53.15 19.5287 4.434109 32.334524 0.427218
2010-08-06 06:01:00 51°24.672 2°53.155 19.5274 4.434637 32.336638 0.427218
2010-08-06 06:01:05 51°24.69 2°53.16 19.5291 4.435376 32.341019 0.392394
2010-08-06 06:01:10 51°24.708 2°53.167 19.5274 4.435376 32.341019 0.392394
2010-08-06 06:01:15 51°24.726 2°53.172 19.5267 4.435903 32.344774 0.427218
2010-08-06 06:01:20 51°24.744 2°53.179 19.5252 4.436537 32.350483 0.427218
2010-08-06 06:01:25 51°24.762 2°53.184 19.523 4.437487 32.35768 0.462042
2010-08-06 06:01:30 51°24.779 2°53.191 19.5173 4.43717 32.355646 0.462042
2010-08-06 06:01:36 51°24.8 2°53.197 19.5151 4.437276 32.355412 0.392394
2010-08-06 06:01:40 51°24.814 2°53.202 19.5212 4.437276 32.355412 0.392394
2010-08-06 06:01:45 51°24.831 2°53.207 19.5255 4.437698 32.358306 0.427218
2010-08-06 06:01:50 51°24.849 2°53.214 19.5265 4.437698 32.358853 0.427218
2010-08-06 06:01:56 51°24.87 2°53.22 19.521 4.437592 32.35854 0.392394
2010-08-06 06:02:00 51°24.883 2°53.225 19.5117 4.437698 32.359401 0.392394
2010-08-06 06:02:05 51°24.901 2°53.23 19.5141 4.438014 32.363624 0.427218
2010-08-06 06:02:10 51°24.918 2°53.237 19.5094 4.438014 32.363624 0.427218
2010-08-06 06:02:15 51°24.936 2°53.242 19.5059 4.438225 32.36644 0.462042
2010-08-06 06:02:20 51°24.953 2°53.248 19.51 4.437592 32.361277 0.427218
2010-08-06 06:02:24 51°24.967 2°53.253 19.4978 4.437276 32.357601 0.427218
2010-08-06 06:02:30 51°24.988 2°53.258 19.5022 4.436537 32.352125 0.392394
2010-08-06 06:02:35 51°25.006 2°53.264 19.4962 4.436326 32.351499 0.462042
2010-08-06 06:02:40 51°25.024 2°53.27 19.5076 4.436326 32.351499 0.462042
2010-08-06 06:02:45 51°25.041 2°53.276 19.4994 4.435165 32.344222 0.496866
2010-08-06 06:02:50 51°25.058 2°53.282 19.5006 4.435165 32.345864 0.462042
2010-08-06 06:02:55 51°25.076 2°53.287 19.5028 4.434637 32.34375 0.462042
2010-08-06 06:03:00 51°25.094 2°53.293 19.4984 4.434426 32.343671 0.427218
2010-08-06 06:03:05 51°25.112 2°53.298 19.4946 4.43527 32.354389 0.462042
2010-08-06 06:03:10 51°25.129 2°53.305 19.4948 4.43527 32.354389 0.462042
2010-08-06 06:03:15 51°25.147 2°53.31 19.4925 4.435693 32.36057 0.462042
2010-08-06 06:03:20 51°25.164 2°53.316 19.4885 4.436326 32.365188 0.427218
2010-08-06 06:03:25 51°25.182 2°53.321 19.4833 4.437065 32.371761 0.427218
2010-08-06 06:03:30 51°25.2 2°53.327 19.4885 4.437276 32.374579 0.427218
2010-08-06 06:03:36 51°25.221 2°53.334 19.4806 4.437381 32.374892 0.427218
2010-08-06 06:03:40 51°25.235 2°53.338 19.4736 4.437381 32.374892 0.427218
2010-08-06 06:03:45 51°25.253 2°53.343 19.4759 4.436748 32.370823 0.427218
2010-08-06 06:03:50 51°25.27 2°53.349 19.475 4.436432 32.369884 0.427218
2010-08-06 06:03:55 51°25.288 2°53.354 19.482 4.436221 32.369806 0.427218
2010-08-06 06:04:00 51°25.305 2°53.361 19.4898 4.436009 32.370824 0.462042
2010-08-06 06:04:05 51°25.323 2°53.365 19.4884 4.435798 32.370198 0.462042
2010-08-06 06:04:10 51°25.34 2°53.372 19.4962 4.435798 32.370198 0.462042
2010-08-06 06:04:16 51°25.361 2°53.376 19.4995 4.435482 32.371451 0.496866
2010-08-06 06:04:20 51°25.374 2°53.383 19.5001 4.435904 32.378186 0.496866
2010-08-06 06:04:25 51°25.392 2°53.387 19.5038 4.435904 32.379831 0.496866
2010-08-06 06:04:30 51°25.409 2°53.394 19.5084 4.435799 32.380067 0.53169
2010-08-06 06:04:35 51°25.427 2°53.399 19.5188 4.436115 32.381554 0.601338
2010-08-06 06:04:40 51°25.444 2°53.404 19.5181 4.436115 32.381554 0.601338
2010-08-06 06:04:45 51°25.461 2°53.41 19.5264 4.436115 32.377167 0.636162
2010-08-06 06:04:50 51°25.479 2°53.415 19.5285 4.436115 32.374426 0.670986
2010-08-06 06:04:55 51°25.496 2°53.422 19.5384 4.435482 32.367067 0.670986
2010-08-06 06:05:00 51°25.513 2°53.426 19.5392 4.434954 32.358926 0.670986
2010-08-06 06:05:05 51°25.531 2°53.434 19.5431 4.433582 32.345544 0.740634
2010-08-06 06:05:10 51°25.548 2°53.438 19.549 4.433582 32.345544 0.740634
2010-08-06 06:05:15 51°25.566 2°53.445 19.5627 4.432315 32.330836 0.740634
2010-08-06 06:05:20 51°25.583 2°53.45 19.5641 4.43126 32.320042 0.70581
2010-08-06 06:05:25 51°25.601 2°53.455 19.5685 4.429888 32.303935 0.775459
2010-08-06 06:05:30 51°25.618 2°53.461 19.5715 4.429149 32.292995 0.775459
2010-08-06 06:05:36 51°25.639 2°53.467 19.5762 4.427882 32.279942 0.740634
2010-08-06 06:05:40 51°25.653 2°53.471 19.5812 4.427882 32.279942 0.740634
2010-08-06 06:05:45 51°25.67 2°53.477 19.5802 4.426405 32.263535 0.775459
2010-08-06 06:05:50 51°25.688 2°53.482 19.5821 4.425982 32.25464 0.810283
2010-08-06 06:05:55 51°25.705 2°53.488 19.5778 4.426404 32.252626 0.810283
2010-08-06 06:06:00 51°25.723 2°53.493 19.5811 4.424821 32.234828 0.775459
2010-08-06 06:06:05 51°25.741 2°53.498 19.5792 4.425032 32.231099 0.845107
2010-08-06 06:06:10 51°25.758 2°53.505 19.5803 4.425032 32.231099 0.845107
2010-08-06 06:06:16 51°25.78 2°53.51 19.5794 4.42556 32.231039 0.775459
2010-08-06 06:06:20 51°25.794 2°53.515 19.5767 4.42556 32.227228 0.740634
2010-08-06 06:06:24 51°25.808 2°53.518 19.5756 4.424821 32.218493 0.775459
2010-08-06 06:06:30 51°25.829 2°53.526 19.5735 4.424188 32.21225 0.775459
2010-08-06 06:06:35 51°25.846 2°53.531 19.5683 4.423238 32.203432 0.775459
2010-08-06 06:06:40 51°25.863 2°53.537 19.5669 4.423238 32.203432 0.775459
2010-08-06 06:06:45 51°25.881 2°53.542 19.5681 4.421232 32.187113 0.740634
2010-08-06 06:06:50 51°25.898 2°53.548 19.5595 4.420282 32.17884 0.70581
2010-08-06 06:06:55 51°25.916 2°53.553 19.5606 4.419544 32.173372 0.740634
2010-08-06 06:07:00 51°25.934 2°53.56 19.5526 4.418488 32.164784 0.70581
2010-08-06 06:07:05 51°25.951 2°53.564 19.5551 4.416483 32.151184 0.70581
2010-08-06 06:07:10 51°25.969 2°53.572 19.5457 4.416483 32.151184 0.70581
2010-08-06 06:07:15 51°25.987 2°53.575 19.5499 4.414689 32.137128 0.740634
2010-08-06 06:07:20 51°26.004 2°53.582 19.5411 4.413 32.125017 0.740634
2010-08-06 06:07:24 51°26.018 2°53.586 19.5378 4.411734 32.115255 0.70581
2010-08-06 06:07:30 51°26.039 2°53.593 19.5248 4.410256 32.107031 0.70581
2010-08-06 06:07:35 51°26.057 2°53.598 19.5232 4.408357 32.093743 0.70581
2010-08-06 06:07:40 51°26.074 2°53.604 19.5185 4.408357 32.093743 0.70581
2010-08-06 06:07:45 51°26.092 2°53.609 19.5147 4.407618 32.0899 0.670986
2010-08-06 06:07:50 51°26.109 2°53.614 19.515 4.406246 32.081989 0.70581
2010-08-06 06:07:55 51°26.126 2°53.62 19.5172 4.404452 32.069558 0.670986
2010-08-06 06:08:00 51°26.144 2°53.624 19.5155 4.404346 32.071409 0.70581
2010-08-06 06:08:05 51°26.161 2°53.63 19.5209 4.40403 32.073169 0.740634
2010-08-06 06:08:10 51°26.179 2°53.634 19.5189 4.40403 32.073169 0.740634
2010-08-06 06:08:16 51°26.2 2°53.641 19.5188 4.403185 32.071719 0.70581
2010-08-06 06:08:20 51°26.214 2°53.644 19.5189 4.402552 32.071987 0.670986
2010-08-06 06:08:25 51°26.232 2°53.65 19.519 4.402763 32.076961 0.636162
2010-08-06 06:08:30 51°26.25 2°53.654 19.5243 4.402658 32.078814 0.70581
2010-08-06 06:08:35 51°26.267 2°53.661 19.5209 4.40308 32.082794 0.636162
2010-08-06 06:08:40 51°26.285 2°53.665 19.5211 4.40308 32.082794 0.636162
2010-08-06 06:08:45 51°26.302 2°53.671 19.5193 4.403291 32.084513 0.70581
2010-08-06 06:08:50 51°26.32 2°53.675 19.5195 4.403924 32.090756 0.670986
2010-08-06 06:08:55 51°26.338 2°53.681 19.5101 4.404663 32.096772 0.670986
2010-08-06 06:09:00 51°26.356 2°53.686 19.506 4.405613 32.103965 0.636162
2010-08-06 06:09:05 51°26.373 2°53.691 19.5093 4.40593 32.105457 0.670986
2010-08-06 06:09:10 51°26.391 2°53.696 19.4991 4.40593 32.105457 0.670986
2010-08-06 06:09:15 51°26.408 2°53.7 19.5 4.406352 32.106723 0.670986
2010-08-06 06:09:20 51°26.425 2°53.707 19.4944 4.406563 32.111157 0.670986
2010-08-06 06:09:25 51°26.443 2°53.711 19.498 4.406563 32.110071 0.636162
2010-08-06 06:09:30 51°26.46 2°53.717 19.4944 4.40688 32.113193 0.670986
2010-08-06 06:09:35 51°26.478 2°53.722 19.4925 4.406457 32.113014 0.670986
2010-08-06 06:09:40 51°26.496 2°53.727 19.4958 4.406457 32.113014 0.670986
2010-08-06 06:09:45 51°26.514 2°53.733 19.4956 4.406457 32.115731 0.601338
2010-08-06 06:09:50 51°26.531 2°53.738 19.5004 4.405297 32.108991 0.601338
2010-08-06 06:09:55 51°26.549 2°53.743 19.508 4.405086 32.109988 0.566514
2010-08-06 06:10:00 51°26.566 2°53.748 19.5161 4.403608 32.100124 0.566514
2010-08-06 06:10:05 51°26.583 2°53.754 19.5224 4.402342 32.09035 0.566514
2010-08-06 06:10:10 51°26.601 2°53.758 19.5266 4.402342 32.09035 0.566514
2010-08-06 06:10:16 51°26.622 2°53.765 19.5347 4.399809 32.074059 0.566514
2010-08-06 06:10:20 51°26.636 2°53.769 19.5406 4.398859 32.065778 0.566514
2010-08-06 06:10:25 51°26.654 2°53.775 19.543 4.397592 32.054918 0.601338
2010-08-06 06:10:30 51°26.672 2°53.78 19.5476 4.396115 32.041256 0.566514
2010-08-06 06:10:35 51°26.69 2°53.784 19.5544 4.395481 32.032304 0.53169
2010-08-06 06:10:40 51°26.707 2°53.79 19.5602 4.395481 32.032304 0.53169
2010-08-06 06:10:45 51°26.725 2°53.794 19.5622 4.394954 32.022587 0.601338
2010-08-06 06:10:50 51°26.743 2°53.8 19.5645 4.394426 32.013958 0.566514
2010-08-06 06:10:56 51°26.764 2°53.806 19.5657 4.394426 32.008543 0.601338
2010-08-06 06:11:00 51°26.778 2°53.81 19.5676 4.394426 32.003672 0.601338
2010-08-06 06:11:05 51°26.796 2°53.815 19.5627 4.395375 32.007073 0.601338
2010-08-06 06:11:10 51°26.814 2°53.82 19.5629 4.395375 32.007073 0.601338
2010-08-06 06:11:15 51°26.831 2°53.826 19.5555 4.395798 32.00672 0.636162
2010-08-06 06:11:20 51°26.849 2°53.83 19.5565 4.396009 32.003028 0.601338
2010-08-06 06:11:25 51°26.867 2°53.836 19.5522 4.395797 31.998066 0.636162
2010-08-06 06:11:30 51°26.885 2°53.84 19.5519 4.397064 32.005123 0.566514
2010-08-06 06:11:35 51°26.902 2°53.846 19.5532 4.397908 32.009828 0.566514
2010-08-06 06:11:40 51°26.92 2°53.851 19.5522 4.397908 32.009828 0.566514
2010-08-06 06:11:45 51°26.937 2°53.856 19.5541 4.399386 32.020764 0.53169
2010-08-06 06:11:50 51°26.955 2°53.861 19.5555 4.399808 32.023656 0.566514
2010-08-06 06:11:55 51°26.973 2°53.865 19.5583 4.400547 32.031289 0.496866
2010-08-06 06:12:00 51°26.99 2°53.871 19.5569 4.400863 32.036571 0.496866
2010-08-06 06:12:05 51°27.007 2°53.876 19.56 4.400969 32.038512 0.566514
2010-08-06 06:12:10 51°27.024 2°53.882 19.5583 4.400969 32.038512 0.566514
2010-08-06 06:12:16 51°27.045 2°53.888 19.5593 4.40118 32.040771 0.53169
2010-08-06 06:12:20 51°27.06 2°53.892 19.5613 4.401496 32.043347 0.53169
2010-08-06 06:12:24 51°27.074 2°53.896 19.5618 4.401919 32.046781 0.566514
2010-08-06 06:12:30 51°27.095 2°53.903 19.5663 4.402341 32.049133 0.53169
2010-08-06 06:12:35 51°27.113 2°53.908 19.5673 4.402868 32.052884 0.462042
2010-08-06 06:12:40 51°27.131 2°53.914 19.5709 4.402868 32.052884 0.462042
2010-08-06 06:12:45 51°27.149 2°53.918 19.5742 4.403396 32.057178 0.496866
2010-08-06 06:12:50 51°27.167 2°53.925 19.5766 4.403818 32.060612 0.496866
2010-08-06 06:12:56 51°27.188 2°53.93 19.5818 4.404768 32.066173 0.496866
2010-08-06 06:13:00 51°27.202 2°53.935 19.5865 4.405085 32.069291 0.462042
2010-08-06 06:13:05 51°27.219 2°53.94 19.5864 4.405718 32.072818 0.53169
2010-08-06 06:13:10 51°27.237 2°53.945 19.5906 4.405718 32.072818 0.53169
2010-08-06 06:13:15 51°27.255 2°53.951 19.5915 4.406351 32.076344 0.496866
2010-08-06 06:13:20 51°27.273 2°53.955 19.5944 4.40709 32.079103 0.496866
2010-08-06 06:13:25 51°27.291 2°53.96 19.596 4.407618 32.082311 0.53169
2010-08-06 06:13:30 51°27.309 2°53.965 19.5974 4.408251 32.084753 0.462042
2010-08-06 06:13:35 51°27.327 2°53.97 19.5998 4.410362 32.098671 0.462042
2010-08-06 06:13:40 51°27.345 2°53.975 19.6 4.410362 32.098671 0.462042
2010-08-06 06:13:45 51°27.363 2°53.98 19.6009 4.410573 32.09822 0.496866
2010-08-06 06:13:50 51°27.38 2°53.986 19.5956 4.41205 32.106985 0.496866
2010-08-06 06:13:55 51°27.398 2°53.991 19.5923 4.413422 32.115975 0.496866
2010-08-06 06:14:00 51°27.415 2°53.997 19.593 4.413844 32.117782 0.462042
2010-08-06 06:14:05 51°27.433 2°54.002 19.5898 4.415111 32.12537 0.496866
2010-08-06 06:14:10 51°27.45 2°54.008 19.5883 4.415111 32.12537 0.496866
2010-08-06 06:14:15 51°27.468 2°54.013 19.5873 4.416377 32.134043 0.496866
2010-08-06 06:14:20 51°27.486 2°54.019 19.588 4.417644 32.142173 0.462042
2010-08-06 06:14:25 51°27.503 2°54.023 19.5864 4.418382 32.148181 0.462042
2010-08-06 06:14:30 51°27.52 2°54.03 19.584 4.420493 32.165891 0.427218
2010-08-06 06:14:35 51°27.537 2°54.033 19.5836 4.420493 32.166977 0.462042
2010-08-06 06:14:40 51°27.555 2°54.039 19.5832 4.420493 32.166977 0.462042
2010-08-06 06:14:45 51°27.573 2°54.043 19.583 4.421549 32.176105 0.427218
2010-08-06 06:14:50 51°27.59 2°54.049 19.5846 4.421971 32.182255 0.427218
2010-08-06 06:14:56 51°27.612 2°54.056 19.5798 4.422499 32.187635 0.427218
2010-08-06 06:15:00 51°27.626 2°54.059 19.5774 4.423449 32.195362 0.427218
2010-08-06 06:15:05 51°27.643 2°54.066 19.5739 4.424187 32.203004 0.35757
2010-08-06 06:15:10 51°27.661 2°54.069 19.58 4.424187 32.203004 0.35757
2010-08-06 06:15:15 51°27.678 2°54.077 19.5639 4.42461 32.20807 0.35757
2010-08-06 06:15:20 51°27.696 2°54.079 19.5706 4.425243 32.213767 0.392394
2010-08-06 06:15:25 51°27.713 2°54.087 19.5619 4.426298 32.223444 0.392394
2010-08-06 06:15:30 51°27.731 2°54.09 19.5541 4.427143 32.229226 0.392394
2010-08-06 06:15:36 51°27.752 2°54.099 19.5431 4.427354 32.232033 0.392394
2010-08-06 06:15:40 51°27.766 2°54.102 19.5396 4.427354 32.232033 0.392394
2010-08-06 06:15:45 51°27.783 2°54.108 19.5316 4.428937 32.24764 0.35757
2010-08-06 06:15:50 51°27.801 2°54.114 19.524 4.429992 32.25732 0.392394
2010-08-06 06:15:55 51°27.818 2°54.119 19.5107 4.430626 32.264654 0.392394
2010-08-06 06:16:00 51°27.835 2°54.125 19.5025 4.431576 32.275658 0.427218
2010-08-06 06:16:05 51°27.852 2°54.131 19.5026 4.432631 32.287524 0.427218
2010-08-06 06:16:10 51°27.869 2°54.137 19.5051 4.432631 32.287524 0.427218
2010-08-06 06:16:15 51°27.886 2°54.142 19.4828 4.433898 32.301658 0.427218
2010-08-06 06:16:20 51°27.904 2°54.15 19.4745 4.434214 32.311334 0.392394
2010-08-06 06:16:25 51°27.921 2°54.155 19.4751 4.434003 32.314531 0.427218
2010-08-06 06:16:30 51°27.938 2°54.161 19.4663 4.433898 32.320227 0.392394
2010-08-06 06:16:35 51°27.955 2°54.166 19.4651 4.433898 32.328427 0.392394
2010-08-06 06:16:40 51°27.972 2°54.171 19.4577 4.433898 32.328427 0.392394
2010-08-06 06:16:45 51°27.988 2°54.177 19.4537 4.432948 32.3267 0.427218
2010-08-06 06:16:50 51°28.005 2°54.183 19.454 4.432421 32.327867 0.427218
2010-08-06 06:16:56 51°28.027 2°54.189 19.4596 4.431893 32.33013 0.496866
2010-08-06 06:17:00 51°28.041 2°54.193 19.4641 4.430838 32.327542 0.496866
2010-08-06 06:17:04 51°28.055 2°54.198 19.4632 4.429571 32.323231 0.462042
2010-08-06 06:17:10 51°28.075 2°54.205 19.4647 4.429571 32.323231 0.462042
2010-08-06 06:17:15 51°28.093 2°54.21 19.4691 4.42936 32.326436 0.462042
2010-08-06 06:17:20 51°28.11 2°54.216 19.4742 4.428411 32.323613 0.462042
2010-08-06 06:17:25 51°28.127 2°54.221 19.4745 4.427883 32.324235 0.462042
2010-08-06 06:17:30 51°28.144 2°54.229 19.4698 4.427672 32.324156 0.427218
2010-08-06 06:17:36 51°28.165 2°54.234 19.4767 4.427566 32.323842 0.427218
2010-08-06 06:17:40 51°28.179 2°54.239 19.4736 4.427566 32.323842 0.427218
2010-08-06 06:17:45 51°28.196 2°54.244 19.4764 4.427989 32.32674 0.462042
2010-08-06 06:17:50 51°28.213 2°54.251 19.4802 4.428094 32.325958 0.392394
2010-08-06 06:17:55 51°28.23 2°54.255 19.4829 4.428516 32.329403 0.462042
2010-08-06 06:18:00 51°28.247 2°54.263 19.476 4.428938 32.331205 0.427218
2010-08-06 06:18:05 51°28.264 2°54.269 19.4832 4.429888 32.337314 0.427218
2010-08-06 06:18:10 51°28.281 2°54.276 19.4876 4.429888 32.337314 0.427218
2010-08-06 06:18:15 51°28.298 2°54.283 19.4825 4.429783 32.334809 0.427218
2010-08-06 06:18:20 51°28.315 2°54.288 19.4796 4.43031 32.339116 0.427218
2010-08-06 06:18:25 51°28.332 2°54.294 19.4764 4.430944 32.341544 0.427218
2010-08-06 06:18:30 51°28.35 2°54.3 19.4751 4.43126 32.342484 0.427218
2010-08-06 06:18:35 51°28.367 2°54.307 19.4669 4.431893 32.346556 0.462042
2010-08-06 06:18:40 51°28.384 2°54.312 19.4663 4.431893 32.346556 0.462042
2010-08-06 06:18:45 51°28.401 2°54.318 19.4634 4.432316 32.349452 0.496866
2010-08-06 06:18:50 51°28.418 2°54.324 19.4554 4.432421 32.349766 0.427218
2010-08-06 06:18:56 51°28.439 2°54.331 19.4495 4.433054 32.353837 0.462042
2010-08-06 06:19:00 51°28.452 2°54.335 19.4532 4.432949 32.356811 0.462042
2010-08-06 06:19:05 51°28.469 2°54.342 19.4518 4.433582 32.360335 0.427218
2010-08-06 06:19:10 51°28.485 2°54.347 19.4534 4.433582 32.360335 0.427218
2010-08-06 06:19:15 51°28.502 2°54.354 19.442 4.43316 32.360178 0.427218
2010-08-06 06:19:20 51°28.519 2°54.358 19.4437 4.43316 32.362371 0.462042
2010-08-06 06:19:25 51°28.535 2°54.365 19.4471 4.432632 32.361902 0.462042
2010-08-06 06:19:30 51°28.553 2°54.37 19.4381 4.432421 32.362921 0.462042
2010-08-06 06:19:36 51°28.572 2°54.378 19.4346 4.431894 32.361355 0.462042
2010-08-06 06:19:40 51°28.586 2°54.382 19.4265 4.431894 32.361355 0.462042
2010-08-06 06:19:45 51°28.605 2°54.389 19.4228 4.431366 32.360337 0.496866
2010-08-06 06:19:50 51°28.622 2°54.395 19.4222 4.431261 32.360024 0.462042
2010-08-06 06:19:55 51°28.639 2°54.402 19.4206 4.430733 32.359006 0.462042
2010-08-06 06:20:00 51°28.657 2°54.407 19.4189 4.430205 32.355795 0.462042
2010-08-06 06:20:05 51°28.673 2°54.415 19.4206 4.429678 32.354228 0.462042
2010-08-06 06:20:10 51°28.691 2°54.419 19.4221 4.429678 32.354228 0.462042
2010-08-06 06:20:15 51°28.708 2°54.427 19.4191 4.428939 32.352035 0.496866
2010-08-06 06:20:20 51°28.725 2°54.431 19.4202 4.427672 32.345532 0.427218
2010-08-06 06:20:25 51°28.742 2°54.44 19.4185 4.426934 32.342789 0.462042
2010-08-06 06:20:30 51°28.76 2°54.444 19.4207 4.426195 32.339497 0.462042
2010-08-06 06:20:35 51°28.777 2°54.451 19.4108 4.424928 32.329701 0.462042
2010-08-06 06:20:40 51°28.794 2°54.457 19.4153 4.424928 32.329701 0.462042
2010-08-06 06:20:45 51°28.812 2°54.461 19.4133 4.423767 32.322412 0.53169
2010-08-06 06:20:50 51°28.829 2°54.467 19.418 4.42324 32.31865 0.53169
2010-08-06 06:20:55 51°28.847 2°54.47 19.4205 4.422923 32.31716 0.462042
2010-08-06 06:21:00 51°28.864 2°54.475 19.4137 4.422395 32.311754 0.53169
2010-08-06 06:21:05 51°28.881 2°54.478 19.414 4.421973 32.309402 0.53169
2010-08-06 06:21:10 51°28.899 2°54.482 19.4129 4.421973 32.309402 0.53169
2010-08-06 06:21:15 51°28.917 2°54.484 19.4133 4.421657 32.307912 0.496866
2010-08-06 06:21:20 51°28.934 2°54.489 19.4084 4.421446 32.310025 0.496866
2010-08-06 06:21:25 51°28.952 2°54.491 19.4154 4.421235 32.307204 0.496866
2010-08-06 06:21:30 51°28.969 2°54.494 19.4199 4.421235 32.307752 0.462042
2010-08-06 06:21:35 51°28.987 2°54.498 19.4154 4.421235 32.307204 0.462042
2010-08-06 06:21:40 51°29.004 2°54.5 19.4199 4.421235 32.307204 0.462042
2010-08-06 06:21:45 51°29.022 2°54.503 19.4177 4.420918 32.306262 0.462042
2010-08-06 06:21:50 51°29.04 2°54.505 19.4213 4.420918 32.306262 0.427218
2010-08-06 06:21:55 51°29.057 2°54.509 19.4242 4.420918 32.307358 0.462042
2010-08-06 06:22:00 51°29.075 2°54.512 19.4203 4.42134 32.310807 0.462042
2010-08-06 06:22:05 51°29.093 2°54.517 19.4189 4.421762 32.313708 0.427218
2010-08-06 06:22:10 51°29.109 2°54.518 19.4147 4.421762 32.313708 0.427218
2010-08-06 06:22:15 51°29.127 2°54.522 19.4127 4.421868 32.312377 0.462042
2010-08-06 06:22:20 51°29.145 2°54.523 19.4097 4.422501 32.318646 0.462042
2010-08-06 06:22:25 51°29.163 2°54.528 19.4082 4.422923 32.320998 0.462042
2010-08-06 06:22:30 51°29.181 2°54.529 19.4052 4.423873 32.327113 0.427218
2010-08-06 06:22:35 51°29.199 2°54.533 19.3992 4.424084 32.328837 0.496866
2010-08-06 06:22:40 51°29.217 2°54.536 19.4056 4.424084 32.328837 0.496866
2010-08-06 06:22:45 51°29.235 2°54.539 19.4051 4.423979 32.327975 0.496866
2010-08-06 06:22:50 51°29.253 2°54.542 19.4021 4.424929 32.336832 0.462042
2010-08-06 06:22:55 51°29.271 2°54.545 19.3947 4.425351 32.341927 0.496866
2010-08-06 06:23:00 51°29.287 2°54.546 19.4 4.425456 32.344984 0.462042
2010-08-06 06:23:05 51°29.305 2°54.551 19.4022 4.425245 32.345455 0.462042
2010-08-06 06:23:10 51°29.323 2°54.551 19.4019 4.425245 32.345455 0.462042
2010-08-06 06:23:15 51°29.341 2°54.555 19.4041 4.425562 32.348042 0.427218
2010-08-06 06:23:20 51°29.361 2°54.557 19.4121 4.425984 32.354237 0.462042
2010-08-06 06:23:25 51°29.379 2°54.561 19.4054 4.425773 32.35361 0.392394
2010-08-06 06:23:30 51°29.397 2°54.562 19.4117 4.426301 32.359022 0.427218
2010-08-06 06:23:35 51°29.416 2°54.566 19.4131 4.427145 32.36757 0.462042
2010-08-06 06:23:40 51°29.434 2°54.567 19.411 4.427145 32.36757 0.462042
2010-08-06 06:23:45 51°29.452 2°54.571 19.4095 4.428939 32.383335 0.427218
2010-08-06 06:23:50 51°29.47 2°54.572 19.4131 4.4301 32.392825 0.392394
2010-08-06 06:23:55 51°29.488 2°54.576 19.4117 4.431895 32.404743 0.392394
2010-08-06 06:24:00 51°29.506 2°54.578 19.4197 4.434005 32.420898 0.35757
2010-08-06 06:24:05 51°29.523 2°54.581 19.4143 4.4358 32.434465 0.392394
2010-08-06 06:24:10 51°29.541 2°54.583 19.412 4.4358 32.434465 0.392394
2010-08-06 06:24:16 51°29.563 2°54.586 19.4109 4.43791 32.449519 0.392394
2010-08-06 06:24:20 51°29.577 2°54.589 19.4164 4.439916 32.466465 0.392394
2010-08-06 06:24:25 51°29.595 2°54.592 19.4162 4.441604 32.478618 0.392394
2010-08-06 06:24:30 51°29.613 2°54.595 19.4159 4.442449 32.483868 0.392394
2010-08-06 06:24:35 51°29.631 2°54.598 19.4195 4.444349 32.499401 0.392394
2010-08-06 06:24:40 51°29.648 2°54.601 19.4217 4.444349 32.499401 0.392394
2010-08-06 06:24:45 51°29.666 2°54.605 19.4289 4.445615 32.508653 0.35757
2010-08-06 06:24:50 51°29.684 2°54.608 19.4231 4.447515 32.52474 0.392394
2010-08-06 06:24:55 51°29.703 2°54.61 19.4288 4.448887 32.536512 0.392394
2010-08-06 06:25:00 51°29.72 2°54.614 19.4216 4.45047 32.547802 0.392394
2010-08-06 06:25:05 51°29.738 2°54.617 19.4242 4.451631 32.55785 0.322746
2010-08-06 06:25:10 51°29.756 2°54.621 19.4265 4.451631 32.55785 0.322746
2010-08-06 06:25:15 51°29.774 2°54.624 19.4228 4.452792 32.565134 0.35757
2010-08-06 06:25:20 51°29.792 2°54.627 19.4253 4.454375 32.578082 0.322746
2010-08-06 06:25:26 51°29.814 2°54.631 19.4239 4.454797 32.578771 0.35757
2010-08-06 06:25:31 51°29.832 2°54.636 19.4267 4.455431 32.582844 0.322746
2010-08-06 06:25:36 51°29.85 2°54.636 19.4293 4.456803 32.593513 0.322746
2010-08-06 06:25:40 51°29.864 2°54.641 19.4253 4.456803 32.593513 0.322746
2010-08-06 06:25:46 51°29.886 2°54.643 19.4325 4.458175 32.603628 0.35757
2010-08-06 06:25:50 51°29.9 2°54.647 19.4225 4.459864 32.618546 0.322746
2010-08-06 06:25:55 51°29.918 2°54.651 19.4242 4.459441 32.612327 0.392394
2010-08-06 06:26:00 51°29.936 2°54.653 19.426 4.460813 32.625209 0.35757
2010-08-06 06:26:06 51°29.957 2°54.658 19.4207 4.459758 32.616576 0.392394
2010-08-06 06:26:10 51°29.972 2°54.659 19.4153 4.459758 32.616576 0.392394
2010-08-06 06:26:16 51°29.993 2°54.664 19.4114 4.460497 32.621512 0.35757
2010-08-06 06:26:20 51°30.008 2°54.666 19.4149 4.460813 32.623548 0.392394
2010-08-06 06:26:26 51°30.029 2°54.671 19.4149 4.46113 32.625031 0.392394
2010-08-06 06:26:30 51°30.044 2°54.673 19.4102 4.460813 32.622442 0.35757
2010-08-06 06:26:37 51°30.069 2°54.678 19.4154 4.461552 32.631806 0.392394
2010-08-06 06:26:40 51°30.08 2°54.68 19.4145 4.461552 32.631806 0.392394
2010-08-06 06:26:46 51°30.101 2°54.684 19.4023 4.461974 32.635259 0.322746
2010-08-06 06:26:50 51°30.116 2°54.686 19.4018 4.462713 32.644072 0.35757
2010-08-06 06:26:56 51°30.138 2°54.691 19.4058 4.463347 32.650915 0.35757